Observation data for Fort McKavett on 03/26/2019      Previous  Date  Next       Current Mesonet Observations  Soil Data  Daily Summary Page  Observations in Plain Language
KMC1 260500Z 07004KT 12/07 A3027 RMK A01 T01220071  RH  071%=      5-min Rain = 0
KMC1 260501Z 07004KT 12/07 A3027 RMK A01 T01220071  RH  071%=      5-min Rain = 0
KMC1 260502Z 07004KT 12/07 A3027 RMK A01 T01210071  RH  071%=      5-min Rain = 0
KMC1 260503Z 06004KT 12/07 A3027 RMK A01 T01210071  RH  071%=      5-min Rain = 0
KMC1 260504Z 07005KT 12/07 A3027 RMK A01 T01210071  RH  072%=      5-min Rain = 0
KMC1 260505Z 07004KT 12/07 A3027 RMK A01 T01210071  RH  072%=      5-min Rain = 0
KMC1 260506Z 07004KT 12/07 A3027 RMK A01 T01200071  RH  072%=      5-min Rain = 0
KMC1 260507Z 07004KT 12/07 A3027 RMK A01 T01200071  RH  072%=      5-min Rain = 0
KMC1 260508Z 07004KT 12/07 A3027 RMK A01 T01200071  RH  072%=      5-min Rain = 0
KMC1 260509Z 07004KT 12/07 A3027 RMK A01 T01190071  RH  072%=      5-min Rain = 0
KMC1 260510Z 07003KT 12/07 A3027 RMK A01 T01190071  RH  072%=      5-min Rain = 0
KMC1 260511Z 07004KT 12/07 A3027 RMK A01 T01180071  RH  073%=      5-min Rain = 0
KMC1 260512Z 08003KT 12/07 A3027 RMK A01 T01180071  RH  073%=      5-min Rain = 0
KMC1 260513Z 07004KT 12/07 A3027 RMK A01 T01170071  RH  073%=      5-min Rain = 0
KMC1 260514Z 07004KT 12/07 A3027 RMK A01 T01170071  RH  073%=      5-min Rain = 0
KMC1 260515Z 07004KT 12/07 A3027 RMK A01 T01170071  RH  073%=      5-min Rain = 0
KMC1 260516Z 07004KT 12/07 A3027 RMK A01 T01170071  RH  073%=      5-min Rain = 0
KMC1 260517Z 07004KT 12/07 A3027 RMK A01 T01170070  RH  073%=      5-min Rain = 0
KMC1 260518Z 07004KT 12/07 A3027 RMK A01 T01170070  RH  073%=      5-min Rain = 0
KMC1 260519Z 07004KT 12/07 A3027 RMK A01 T01170070  RH  073%=      5-min Rain = 0
KMC1 260520Z 07004KT 12/07 A3027 RMK A01 T01170070  RH  073%=      5-min Rain = 0
KMC1 260521Z 07004KT 12/07 A3027 RMK A01 T01160070  RH  073%=      5-min Rain = 0
KMC1 260522Z 07004KT 12/07 A3027 RMK A01 T01160070  RH  073%=      5-min Rain = 0
KMC1 260523Z 07004KT 12/07 A3027 RMK A01 T01160070  RH  073%=      5-min Rain = 0
KMC1 260524Z 07004KT 12/07 A3027 RMK A01 T01160070  RH  073%=      5-min Rain = 0
KMC1 260525Z 07005KT 12/07 A3027 RMK A01 T01150070  RH  073%=      5-min Rain = 0
KMC1 260526Z 07004KT 12/07 A3026 RMK A01 T01150069  RH  074%=      5-min Rain = 0
KMC1 260527Z 07004KT 12/07 A3026 RMK A01 T01150070  RH  074%=      5-min Rain = 0
KMC1 260528Z 07004KT 11/07 A3026 RMK A01 T01140069  RH  074%=      5-min Rain = 0
KMC1 260529Z 07004KT 11/07 A3026 RMK A01 T01140069  RH  074%=      5-min Rain = 0
KMC1 260530Z 07004KT 11/07 A3026 RMK A01 T01140069  RH  074%=      5-min Rain = 0
KMC1 260531Z 07005KT 11/07 A3026 RMK A01 T01140069  RH  074%=      5-min Rain = 0
KMC1 260532Z 06005KT 11/07 A3026 RMK A01 T01130069  RH  074%=      5-min Rain = 0
KMC1 260533Z 06005KT 11/07 A3026 RMK A01 T01130069  RH  074%=      5-min Rain = 0
KMC1 260534Z 06005KT 11/07 A3026 RMK A01 T01130069  RH  074%=      5-min Rain = 0
KMC1 260535Z 07004KT 11/07 A3026 RMK A01 T01130069  RH  074%=      5-min Rain = 0
KMC1 260536Z 06004KT 11/07 A3026 RMK A01 T01130069  RH  074%=      5-min Rain = 0
KMC1 260537Z 06004KT 11/07 A3026 RMK A01 T01120069  RH  075%=      5-min Rain = 0
KMC1 260538Z 06004KT 11/07 A3026 RMK A01 T01120069  RH  075%=      5-min Rain = 0
KMC1 260539Z 06003KT 11/07 A3026 RMK A01 T01120068  RH  075%=      5-min Rain = 0
KMC1 260540Z 06003KT 11/07 A3026 RMK A01 T01110068  RH  075%=      5-min Rain = 0
KMC1 260541Z 06003KT 11/07 A3026 RMK A01 T01110069  RH  075%=      5-min Rain = 0
KMC1 260542Z 05004KT 11/07 A3026 RMK A01 T01110069  RH  076%=      5-min Rain = 0
KMC1 260543Z 05004KT 11/07 A3026 RMK A01 T01110070  RH  076%=      5-min Rain = 0
KMC1 260544Z 05003KT 11/07 A3026 RMK A01 T01110069  RH  076%=      5-min Rain = 0
KMC1 260545Z 05003KT 11/07 A3026 RMK A01 T01110069  RH  076%=      5-min Rain = 0
KMC1 260546Z 06003KT 11/07 A3026 RMK A01 T01100069  RH  076%=      5-min Rain = 0
KMC1 260547Z 06003KT 11/07 A3027 RMK A01 T01100069  RH  076%=      5-min Rain = 0
KMC1 260548Z 07003KT 11/07 A3027 RMK A01 T01100070  RH  076%=      5-min Rain = 0
KMC1 260549Z 07003KT 11/07 A3027 RMK A01 T01100070  RH  076%=      5-min Rain = 0
KMC1 260550Z 07003KT 11/07 A3027 RMK A01 T01090069  RH  076%=      5-min Rain = 0
KMC1 260551Z 07003KT 11/07 A3027 RMK A01 T01090069  RH  076%=      5-min Rain = 0
KMC1 260552Z 07004KT 11/07 A3027 RMK A01 T01090069  RH  077%=      5-min Rain = 0
KMC1 260553Z 07003KT 11/07 A3026 RMK A01 T01090070  RH  077%=      5-min Rain = 0
KMC1 260554Z 07003KT 11/07 A3026 RMK A01 T01080069  RH  077%=      5-min Rain = 0
KMC1 260555Z 07004KT 11/07 A3026 RMK A01 T01080069  RH  077%=      5-min Rain = 0
KMC1 260556Z 07004KT 11/07 A3026 RMK A01 T01070069  RH  077%=      5-min Rain = 0
KMC1 260557Z 07004KT 11/07 A3026 RMK A01 T01070069  RH  077%=      5-min Rain = 0
KMC1 260558Z 06004KT 11/07 A3026 RMK A01 T01070069  RH  077%=      5-min Rain = 0
KMC1 260559Z 06004KT 11/07 A3026 RMK A01 T01070069  RH  077%=      5-min Rain = 0
KMC1 260600Z 06004KT 11/07 A3027 RMK A01 T01070070  RH  077%=      5-min Rain = 0
KMC1 260601Z 06004KT 11/07 A3027 RMK A01 T01070070  RH  078%=      5-min Rain = 0
KMC1 260602Z 06004KT 11/07 A3027 RMK A01 T01070070  RH  078%=      5-min Rain = 0
KMC1 260603Z 06004KT 11/07 A3027 RMK A01 T01070070  RH  078%=      5-min Rain = 0
KMC1 260604Z 07004KT 11/07 A3027 RMK A01 T01060070  RH  078%=      5-min Rain = 0
KMC1 260605Z 07004KT 11/07 A3027 RMK A01 T01060070  RH  078%=      5-min Rain = 0
KMC1 260606Z 07004KT 11/07 A3027 RMK A01 T01060070  RH  078%=      5-min Rain = 0
KMC1 260607Z 06004KT 11/07 A3027 RMK A01 T01060070  RH  079%=      5-min Rain = 0
KMC1 260608Z 07004KT 11/07 A3027 RMK A01 T01060070  RH  079%=      5-min Rain = 0
KMC1 260609Z 07004KT 11/07 A3027 RMK A01 T01060070  RH  078%=      5-min Rain = 0
KMC1 260610Z 07004KT 11/07 A3027 RMK A01 T01060070  RH  078%=      5-min Rain = 0
KMC1 260611Z 07004KT 11/07 A3027 RMK A01 T01060070  RH  078%=      5-min Rain = 0
KMC1 260612Z 07004KT 11/07 A3027 RMK A01 T01050069  RH  078%=      5-min Rain = 0
KMC1 260613Z 07004KT 11/07 A3027 RMK A01 T01050070  RH  079%=      5-min Rain = 0
KMC1 260614Z 07004KT 11/07 A3027 RMK A01 T01050070  RH  079%=      5-min Rain = 0
KMC1 260615Z 06004KT 11/07 A3027 RMK A01 T01050070  RH  079%=      5-min Rain = 0
KMC1 260616Z 07004KT 11/07 A3027 RMK A01 T01050069  RH  079%=      5-min Rain = 0
KMC1 260617Z 07004KT 10/07 A3027 RMK A01 T01040069  RH  079%=      5-min Rain = 0
KMC1 260618Z 07004KT 11/07 A3027 RMK A01 T01050070  RH  079%=      5-min Rain = 0
KMC1 260619Z 07004KT 10/07 A3027 RMK A01 T01040069  RH  079%=      5-min Rain = 0
KMC1 260620Z 07004KT 10/07 A3027 RMK A01 T01040070  RH  079%=      5-min Rain = 0
KMC1 260621Z 07004KT 10/07 A3027 RMK A01 T01040069  RH  079%=      5-min Rain = 0
KMC1 260622Z 07004KT 10/07 A3027 RMK A01 T01040070  RH  079%=      5-min Rain = 0
KMC1 260623Z 06004KT 10/07 A3027 RMK A01 T01040069  RH  079%=      5-min Rain = 0
KMC1 260624Z 07004KT 10/07 A3027 RMK A01 T01030069  RH  079%=      5-min Rain = 0
KMC1 260625Z 07003KT 10/07 A3028 RMK A01 T01030069  RH  079%=      5-min Rain = 0
KMC1 260626Z 07003KT 10/07 A3028 RMK A01 T01030069  RH  080%=      5-min Rain = 0
KMC1 260627Z 07003KT 10/07 A3028 RMK A01 T01030069  RH  080%=      5-min Rain = 0
KMC1 260628Z 07003KT 10/07 A3028 RMK A01 T01030069  RH  080%=      5-min Rain = 0
KMC1 260629Z 07004KT 10/07 A3028 RMK A01 T01030069  RH  080%=      5-min Rain = 0
KMC1 260630Z 07004KT 10/07 A3028 RMK A01 T01030069  RH  080%=      5-min Rain = 0
KMC1 260631Z 08004KT 10/07 A3028 RMK A01 T01030070  RH  080%=      5-min Rain = 0
KMC1 260632Z 08004KT 10/07 A3028 RMK A01 T01020069  RH  080%=      5-min Rain = 0
KMC1 260633Z 08004KT 10/07 A3028 RMK A01 T01030069  RH  080%=      5-min Rain = 0
KMC1 260634Z 08004KT 10/07 A3028 RMK A01 T01030069  RH  080%=      5-min Rain = 0
KMC1 260635Z 07004KT 10/07 A3028 RMK A01 T01020069  RH  080%=      5-min Rain = 0
KMC1 260636Z 07004KT 10/07 A3028 RMK A01 T01020069  RH  080%=      5-min Rain = 0
KMC1 260637Z 07004KT 10/07 A3028 RMK A01 T01020069  RH  080%=      5-min Rain = 0
KMC1 260638Z 06004KT 10/07 A3028 RMK A01 T01020069  RH  080%=      5-min Rain = 0
KMC1 260639Z 05004KT 10/07 A3028 RMK A01 T01020069  RH  080%=      5-min Rain = 0
KMC1 260640Z 06004KT 10/07 A3028 RMK A01 T01020069  RH  080%=      5-min Rain = 0
KMC1 260641Z 06003KT 10/07 A3028 RMK A01 T01020069  RH  080%=      5-min Rain = 0
KMC1 260642Z 07004KT 10/07 A3028 RMK A01 T01020069  RH  080%=      5-min Rain = 0
KMC1 260643Z 07004KT 10/07 A3028 RMK A01 T01020070  RH  080%=      5-min Rain = 0
KMC1 260644Z 07004KT 10/07 A3028 RMK A01 T01020070  RH  080%=      5-min Rain = 0
KMC1 260645Z 07004KT 10/07 A3028 RMK A01 T01020070  RH  080%=      5-min Rain = 0
KMC1 260646Z 07004KT 10/07 A3028 RMK A01 T01010069  RH  080%=      5-min Rain = 0
KMC1 260647Z 07003KT 10/07 A3028 RMK A01 T01010069  RH  081%=      5-min Rain = 0
KMC1 260648Z 07004KT 10/07 A3028 RMK A01 T01000069  RH  081%=      5-min Rain = 0
KMC1 260649Z 07004KT 10/07 A3028 RMK A01 T01000069  RH  081%=      5-min Rain = 0
KMC1 260650Z 07003KT 10/07 A3028 RMK A01 T00990068  RH  081%=      5-min Rain = 0
KMC1 260651Z 07004KT 10/07 A3028 RMK A01 T00990069  RH  081%=      5-min Rain = 0
KMC1 260652Z 07004KT 10/07 A3028 RMK A01 T00990069  RH  082%=      5-min Rain = 0
KMC1 260653Z 07004KT 10/07 A3028 RMK A01 T00990069  RH  082%=      5-min Rain = 0
KMC1 260654Z 07003KT 10/07 A3028 RMK A01 T00980069  RH  082%=      5-min Rain = 0
KMC1 260655Z 07003KT 10/07 A3028 RMK A01 T00980069  RH  082%=      5-min Rain = 0
KMC1 260656Z 07003KT 10/07 A3028 RMK A01 T00980069  RH  082%=      5-min Rain = 0
KMC1 260657Z 07003KT 10/07 A3028 RMK A01 T00980069  RH  082%=      5-min Rain = 0
KMC1 260658Z 07003KT 10/07 A3028 RMK A01 T00980070  RH  083%=      5-min Rain = 0
KMC1 260659Z 07003KT 10/07 A3028 RMK A01 T00980069  RH  083%=      5-min Rain = 0
KMC1 260700Z 07003KT 10/07 A3028 RMK A01 T00970069  RH  083%=      5-min Rain = 0
KMC1 260701Z 07003KT 10/07 A3028 RMK A01 T00970069  RH  083%=      5-min Rain = 0
KMC1 260702Z 07003KT 10/07 A3028 RMK A01 T00970069  RH  083%=      5-min Rain = 0
KMC1 260703Z 08003KT 10/07 A3028 RMK A01 T00970069  RH  083%=      5-min Rain = 0
KMC1 260704Z 09003KT 10/07 A3028 RMK A01 T00970070  RH  083%=      5-min Rain = 0
KMC1 260705Z 09003KT 10/07 A3028 RMK A01 T00980070  RH  083%=      5-min Rain = 0
KMC1 260706Z 09003KT 10/07 A3028 RMK A01 T00980069  RH  082%=      5-min Rain = 0
KMC1 260707Z 09003KT 10/07 A3028 RMK A01 T00980069  RH  082%=      5-min Rain = 0
KMC1 260708Z 09004KT 10/07 A3028 RMK A01 T00980069  RH  082%=      5-min Rain = 0
KMC1 260709Z 08004KT 10/07 A3028 RMK A01 T00980069  RH  082%=      5-min Rain = 0
KMC1 260710Z 08004KT 10/07 A3028 RMK A01 T00980069  RH  082%=      5-min Rain = 0
KMC1 260711Z 08004KT 10/07 A3028 RMK A01 T00980069  RH  082%=      5-min Rain = 0
KMC1 260712Z 08004KT 10/07 A3028 RMK A01 T00980069  RH  082%=      5-min Rain = 0
KMC1 260713Z 07004KT 10/07 A3028 RMK A01 T00980069  RH  082%=      5-min Rain = 0
KMC1 260714Z 07004KT 10/07 A3028 RMK A01 T00980069  RH  082%=      5-min Rain = 0
KMC1 260715Z 07004KT 10/07 A3028 RMK A01 T00980069  RH  082%=      5-min Rain = 0
KMC1 260716Z 07004KT 10/07 A3028 RMK A01 T00980069  RH  082%=      5-min Rain = 0
KMC1 260717Z 07003KT 10/07 A3028 RMK A01 T00980069  RH  082%=      5-min Rain = 0
KMC1 260718Z 07003KT 10/07 A3028 RMK A01 T00990069  RH  082%=      5-min Rain = 0
KMC1 260719Z 07003KT 10/07 A3028 RMK A01 T00980069  RH  082%=      5-min Rain = 0
KMC1 260720Z 07003KT 10/07 A3028 RMK A01 T00990069  RH  082%=      5-min Rain = 0
KMC1 260721Z 07003KT 10/07 A3028 RMK A01 T00980069  RH  082%=      5-min Rain = 0
KMC1 260722Z 07003KT 10/07 A3028 RMK A01 T00980069  RH  082%=      5-min Rain = 0
KMC1 260723Z 07003KT 10/07 A3028 RMK A01 T00980069  RH  082%=      5-min Rain = 0
KMC1 260724Z 07003KT 10/07 A3028 RMK A01 T00980069  RH  082%=      5-min Rain = 0
KMC1 260725Z 06003KT 10/07 A3028 RMK A01 T00980069  RH  083%=      5-min Rain = 0
KMC1 260726Z 06003KT 10/07 A3028 RMK A01 T00970069  RH  083%=      5-min Rain = 0
KMC1 260727Z 07003KT 10/07 A3028 RMK A01 T00970069  RH  083%=      5-min Rain = 0
KMC1 260728Z 06003KT 10/07 A3028 RMK A01 T00970069  RH  083%=      5-min Rain = 0
KMC1 260729Z 06003KT 10/07 A3028 RMK A01 T00970069  RH  083%=      5-min Rain = 0
KMC1 260730Z 07003KT 10/07 A3028 RMK A01 T00970069  RH  083%=      5-min Rain = 0
KMC1 260731Z 06004KT 10/07 A3028 RMK A01 T00970069  RH  082%=      5-min Rain = 0
KMC1 260732Z 06004KT 10/07 A3028 RMK A01 T00970068  RH  082%=      5-min Rain = 0
KMC1 260733Z 07004KT 10/07 A3028 RMK A01 T00970068  RH  082%=      5-min Rain = 0
KMC1 260734Z 06004KT 10/07 A3028 RMK A01 T00970069  RH  082%=      5-min Rain = 0
KMC1 260735Z 06004KT 10/07 A3028 RMK A01 T00970069  RH  082%=      5-min Rain = 0
KMC1 260736Z 06004KT 10/07 A3028 RMK A01 T00970068  RH  083%=      5-min Rain = 0
KMC1 260737Z 06004KT 10/07 A3028 RMK A01 T00970069  RH  083%=      5-min Rain = 0
KMC1 260738Z 05004KT 10/07 A3028 RMK A01 T00970069  RH  083%=      5-min Rain = 0
KMC1 260739Z 06004KT 10/07 A3028 RMK A01 T00970069  RH  083%=      5-min Rain = 0
KMC1 260740Z 05006KT 10/07 A3028 RMK A01 T00970069  RH  083%=      5-min Rain = 0
KMC1 260741Z 05007KT 10/07 A3028 RMK A01 T00980070  RH  083%=      5-min Rain = 0
KMC1 260742Z 04007KT 10/07 A3028 RMK A01 T00990070  RH  082%=      5-min Rain = 0
KMC1 260743Z 05008KT 10/07 A3028 RMK A01 T00990070  RH  082%=      5-min Rain = 0
KMC1 260744Z 04008KT 10/07 A3027 RMK A01 T00990070  RH  082%=      5-min Rain = 0
KMC1 260745Z 04007KT 10/07 A3027 RMK A01 T00990070  RH  082%=      5-min Rain = 0
KMC1 260746Z 04007KT 10/07 A3028 RMK A01 T00990070  RH  083%=      5-min Rain = 0
KMC1 260747Z 04006KT 10/07 A3028 RMK A01 T00990071  RH  083%=      5-min Rain = 0
KMC1 260748Z 04006KT 10/07 A3028 RMK A01 T01000071  RH  082%=      5-min Rain = 0
KMC1 260749Z 05006KT 10/07 A3028 RMK A01 T01000071  RH  082%=      5-min Rain = 0
KMC1 260750Z 05005KT 10/07 A3028 RMK A01 T01010071  RH  082%=      5-min Rain = 0
KMC1 260751Z 05005KT 10/07 A3028 RMK A01 T01000071  RH  082%=      5-min Rain = 0
KMC1 260752Z 05004KT 10/07 A3028 RMK A01 T01000071  RH  082%=      5-min Rain = 0
KMC1 260753Z 05005KT 10/07 A3028 RMK A01 T00990070  RH  082%=      5-min Rain = 0
KMC1 260754Z 05004KT 10/07 A3028 RMK A01 T00990070  RH  082%=      5-min Rain = 0
KMC1 260755Z 06003KT 10/07 A3028 RMK A01 T00980070  RH  083%=      5-min Rain = 0
KMC1 260756Z 06003KT 10/07 A3028 RMK A01 T00970070  RH  083%=      5-min Rain = 0
KMC1 260757Z 06003KT 10/07 A3028 RMK A01 T00960069  RH  083%=      5-min Rain = 0
KMC1 260758Z 07003KT 09/07 A3028 RMK A01 T00940069  RH  084%=      5-min Rain = 0
KMC1 260759Z 07002KT 09/07 A3028 RMK A01 T00930069  RH  085%=      5-min Rain = 0
KMC1 260800Z 08003KT 09/07 A3028 RMK A01 T00920068  RH  085%=      5-min Rain = 0
KMC1 260801Z 09002KT 09/07 A3028 RMK A01 T00910068  RH  085%=      5-min Rain = 0
KMC1 260802Z 08003KT 09/07 A3028 RMK A01 T00910068  RH  086%=      5-min Rain = 0
KMC1 260803Z 07003KT 09/07 A3028 RMK A01 T00900067  RH  086%=      5-min Rain = 0
KMC1 260804Z 07002KT 09/07 A3028 RMK A01 T00900067  RH  086%=      5-min Rain = 0
KMC1 260805Z 06003KT 09/07 A3028 RMK A01 T00900068  RH  086%=      5-min Rain = 0
KMC1 260806Z 06003KT 09/07 A3028 RMK A01 T00890067  RH  086%=      5-min Rain = 0
KMC1 260807Z 07003KT 09/07 A3028 RMK A01 T00890068  RH  086%=      5-min Rain = 0
KMC1 260808Z 07003KT 09/07 A3028 RMK A01 T00890068  RH  087%=      5-min Rain = 0
KMC1 260809Z 06003KT 09/07 A3028 RMK A01 T00890068  RH  087%=      5-min Rain = 0
KMC1 260810Z 06003KT 09/07 A3028 RMK A01 T00890068  RH  087%=      5-min Rain = 0
KMC1 260811Z 06003KT 09/07 A3028 RMK A01 T00900069  RH  087%=      5-min Rain = 0
KMC1 260812Z 05004KT 09/07 A3028 RMK A01 T00900069  RH  087%=      5-min Rain = 0
KMC1 260813Z 05004KT 09/07 A3028 RMK A01 T00900069  RH  086%=      5-min Rain = 0
KMC1 260814Z 05004KT 09/07 A3028 RMK A01 T00910070  RH  086%=      5-min Rain = 0
KMC1 260815Z 06003KT 09/07 A3028 RMK A01 T00920070  RH  086%=      5-min Rain = 0
KMC1 260816Z 06003KT 09/07 A3028 RMK A01 T00920069  RH  086%=      5-min Rain = 0
KMC1 260817Z 07003KT 09/07 A3028 RMK A01 T00920069  RH  086%=      5-min Rain = 0
KMC1 260818Z 07003KT 09/07 A3028 RMK A01 T00920070  RH  086%=      5-min Rain = 0
KMC1 260819Z 07003KT 09/07 A3028 RMK A01 T00910069  RH  086%=      5-min Rain = 0
KMC1 260820Z 06003KT 09/07 A3028 RMK A01 T00910069  RH  086%=      5-min Rain = 0
KMC1 260821Z 06003KT 09/07 A3028 RMK A01 T00910069  RH  086%=      5-min Rain = 0
KMC1 260822Z 06003KT 09/07 A3028 RMK A01 T00900069  RH  086%=      5-min Rain = 0
KMC1 260823Z 07003KT 09/07 A3028 RMK A01 T00900069  RH  087%=      5-min Rain = 0
KMC1 260824Z 07002KT 09/07 A3028 RMK A01 T00890068  RH  087%=      5-min Rain = 0
KMC1 260825Z 07003KT 09/07 A3028 RMK A01 T00890068  RH  087%=      5-min Rain = 0
KMC1 260826Z 07003KT 09/07 A3028 RMK A01 T00890068  RH  087%=      5-min Rain = 0
KMC1 260827Z 07003KT 09/07 A3028 RMK A01 T00880069  RH  088%=      5-min Rain = 0
KMC1 260828Z 07003KT 09/07 A3028 RMK A01 T00880070  RH  088%=      5-min Rain = 0
KMC1 260829Z 07003KT 09/07 A3028 RMK A01 T00880069  RH  088%=      5-min Rain = 0
KMC1 260830Z 07003KT 09/07 A3028 RMK A01 T00880069  RH  088%=      5-min Rain = 0
KMC1 260831Z 07003KT 09/07 A3028 RMK A01 T00870069  RH  088%=      5-min Rain = 0
KMC1 260832Z 07003KT 09/07 A3028 RMK A01 T00870069  RH  088%=      5-min Rain = 0
KMC1 260833Z 07003KT 09/07 A3028 RMK A01 T00870069  RH  088%=      5-min Rain = 0
KMC1 260834Z 07003KT 09/07 A3028 RMK A01 T00870069  RH  089%=      5-min Rain = 0
KMC1 260835Z 06003KT 09/07 A3028 RMK A01 T00870069  RH  089%=      5-min Rain = 0
KMC1 260836Z 06003KT 09/07 A3028 RMK A01 T00870069  RH  089%=      5-min Rain = 0
KMC1 260837Z 06003KT 09/07 A3028 RMK A01 T00870069  RH  089%=      5-min Rain = 0
KMC1 260838Z 06003KT 09/07 A3028 RMK A01 T00870069  RH  089%=      5-min Rain = 0
KMC1 260839Z 06003KT 09/07 A3028 RMK A01 T00870069  RH  089%=      5-min Rain = 0
KMC1 260840Z 06003KT 09/07 A3028 RMK A01 T00870069  RH  089%=      5-min Rain = 0
KMC1 260841Z 06003KT 09/07 A3028 RMK A01 T00860069  RH  089%=      5-min Rain = 0
KMC1 260842Z 06003KT 09/07 A3028 RMK A01 T00860069  RH  089%=      5-min Rain = 0
KMC1 260843Z 07003KT 09/07 A3028 RMK A01 T00860070  RH  089%=      5-min Rain = 0
KMC1 260844Z 07003KT 09/07 A3028 RMK A01 T00860070  RH  089%=      5-min Rain = 0
KMC1 260845Z 07003KT 09/07 A3028 RMK A01 T00860070  RH  089%=      5-min Rain = 0
KMC1 260846Z 07003KT 09/07 A3028 RMK A01 T00860070  RH  089%=      5-min Rain = 0
KMC1 260847Z 07003KT 09/07 A3028 RMK A01 T00860069  RH  089%=      5-min Rain = 0
KMC1 260848Z 08003KT 09/07 A3028 RMK A01 T00860069  RH  089%=      5-min Rain = 0
KMC1 260849Z 08003KT 09/07 A3028 RMK A01 T00860069  RH  089%=      5-min Rain = 0
KMC1 260850Z 08003KT 09/07 A3028 RMK A01 T00860069  RH  089%=      5-min Rain = 0
KMC1 260851Z 07003KT 09/07 A3028 RMK A01 T00850069  RH  089%=      5-min Rain = 0
KMC1 260852Z 07003KT 09/07 A3028 RMK A01 T00850069  RH  090%=      5-min Rain = 0
KMC1 260853Z 07003KT 09/07 A3028 RMK A01 T00850069  RH  090%=      5-min Rain = 0
KMC1 260854Z 07003KT 09/07 A3028 RMK A01 T00850069  RH  090%=      5-min Rain = 0
KMC1 260855Z 07003KT 09/07 A3028 RMK A01 T00850069  RH  090%=      5-min Rain = 0
KMC1 260856Z 07003KT 08/07 A3028 RMK A01 T00840068  RH  090%=      5-min Rain = 0
KMC1 260857Z 07003KT 08/07 A3028 RMK A01 T00840068  RH  090%=      5-min Rain = 0
KMC1 260858Z 07003KT 08/07 A3028 RMK A01 T00840068  RH  090%=      5-min Rain = 0
KMC1 260859Z 08003KT 08/07 A3028 RMK A01 T00830068  RH  090%=      5-min Rain = 0
KMC1 260900Z 07003KT 08/07 A3028 RMK A01 T00830068  RH  090%=      5-min Rain = 0
KMC1 260901Z 07003KT 08/07 A3028 RMK A01 T00830069  RH  091%=      5-min Rain = 0
KMC1 260902Z 07003KT 08/07 A3028 RMK A01 T00830069  RH  091%=      5-min Rain = 0
KMC1 260903Z 07003KT 08/07 A3028 RMK A01 T00830069  RH  091%=      5-min Rain = 0
KMC1 260904Z 07003KT 08/07 A3028 RMK A01 T00830069  RH  091%=      5-min Rain = 0
KMC1 260905Z 08003KT 08/07 A3028 RMK A01 T00830069  RH  091%=      5-min Rain = 0
KMC1 260906Z 08003KT 08/07 A3028 RMK A01 T00830069  RH  091%=      5-min Rain = 0
KMC1 260907Z 08003KT 08/07 A3028 RMK A01 T00830070  RH  091%=      5-min Rain = 0
KMC1 260908Z 08002KT 08/07 A3028 RMK A01 T00830070  RH  091%=      5-min Rain = 0
KMC1 260909Z 08003KT 08/07 A3028 RMK A01 T00840070  RH  091%=      5-min Rain = 0
KMC1 260910Z 08003KT 08/07 A3028 RMK A01 T00840069  RH  091%=      5-min Rain = 0
KMC1 260911Z 07003KT 08/07 A3028 RMK A01 T00840070  RH  090%=      5-min Rain = 0
KMC1 260912Z 07003KT 08/07 A3028 RMK A01 T00840069  RH  090%=      5-min Rain = 0
KMC1 260913Z 07004KT 08/07 A3028 RMK A01 T00840069  RH  090%=      5-min Rain = 0
KMC1 260914Z 07004KT 08/07 A3028 RMK A01 T00840069  RH  090%=      5-min Rain = 0
KMC1 260915Z 07004KT 08/07 A3028 RMK A01 T00840069  RH  090%=      5-min Rain = 0
KMC1 260916Z 07004KT 08/07 A3028 RMK A01 T00840069  RH  090%=      5-min Rain = 0
KMC1 260917Z 07004KT 08/07 A3028 RMK A01 T00840069  RH  090%=      5-min Rain = 0
KMC1 260918Z 08004KT 08/07 A3028 RMK A01 T00840069  RH  090%=      5-min Rain = 0
KMC1 260919Z 08004KT 08/07 A3028 RMK A01 T00830068  RH  090%=      5-min Rain = 0
KMC1 260920Z 07003KT 08/07 A3028 RMK A01 T00830068  RH  090%=      5-min Rain = 0
KMC1 260921Z 07003KT 08/07 A3028 RMK A01 T00830069  RH  091%=      5-min Rain = 0
KMC1 260922Z 07004KT 08/07 A3028 RMK A01 T00830069  RH  091%=      5-min Rain = 0
KMC1 260923Z 07003KT 08/07 A3028 RMK A01 T00830069  RH  091%=      5-min Rain = 0
KMC1 260924Z 07003KT 08/07 A3028 RMK A01 T00830069  RH  091%=      5-min Rain = 0
KMC1 260925Z 06004KT 08/07 A3028 RMK A01 T00830069  RH  091%=      5-min Rain = 0
KMC1 260926Z 06003KT 08/07 A3028 RMK A01 T00830069  RH  091%=      5-min Rain = 0
KMC1 260927Z 07003KT 08/07 A3028 RMK A01 T00830068  RH  091%=      5-min Rain = 0
KMC1 260928Z 07003KT 08/07 A3028 RMK A01 T00830068  RH  091%=      5-min Rain = 0
KMC1 260929Z 07003KT 08/07 A3028 RMK A01 T00830068  RH  091%=      5-min Rain = 0
KMC1 260930Z 07003KT 08/07 A3028 RMK A01 T00830069  RH  091%=      5-min Rain = 0
KMC1 260931Z 07003KT 08/07 A3028 RMK A01 T00830069  RH  091%=      5-min Rain = 0
KMC1 260932Z 07004KT 08/07 A3028 RMK A01 T00830069  RH  091%=      5-min Rain = 0
KMC1 260933Z 07003KT 08/07 A3028 RMK A01 T00830069  RH  090%=      5-min Rain = 0
KMC1 260934Z 06003KT 08/07 A3028 RMK A01 T00830069  RH  090%=      5-min Rain = 0
KMC1 260935Z 06004KT 08/07 A3027 RMK A01 T00830068  RH  090%=      5-min Rain = 0
KMC1 260936Z 06003KT 08/07 A3027 RMK A01 T00830068  RH  090%=      5-min Rain = 0
KMC1 260937Z 06003KT 08/07 A3027 RMK A01 T00830068  RH  090%=      5-min Rain = 0
KMC1 260938Z 06003KT 08/07 A3028 RMK A01 T00830068  RH  090%=      5-min Rain = 0
KMC1 260939Z 07003KT 08/07 A3028 RMK A01 T00830068  RH  090%=      5-min Rain = 0
KMC1 260940Z 07003KT 08/07 A3027 RMK A01 T00820068  RH  091%=      5-min Rain = 0
KMC1 260941Z 07003KT 08/07 A3027 RMK A01 T00830069  RH  091%=      5-min Rain = 0
KMC1 260942Z 07004KT 08/07 A3027 RMK A01 T00820068  RH  091%=      5-min Rain = 0
KMC1 260943Z 06004KT 08/07 A3027 RMK A01 T00830069  RH  091%=      5-min Rain = 0
KMC1 260944Z 06004KT 08/07 A3027 RMK A01 T00830068  RH  091%=      5-min Rain = 0
KMC1 260945Z 06003KT 08/07 A3027 RMK A01 T00830069  RH  091%=      5-min Rain = 0
KMC1 260946Z 06003KT 08/07 A3027 RMK A01 T00830068  RH  091%=      5-min Rain = 0
KMC1 260947Z 06003KT 08/07 A3027 RMK A01 T00830068  RH  091%=      5-min Rain = 0
KMC1 260948Z 06003KT 08/07 A3027 RMK A01 T00830068  RH  091%=      5-min Rain = 0
KMC1 260949Z 06003KT 08/07 A3027 RMK A01 T00820068  RH  091%=      5-min Rain = 0
KMC1 260950Z 06004KT 08/07 A3027 RMK A01 T00820068  RH  091%=      5-min Rain = 0
KMC1 260951Z 06003KT 08/07 A3027 RMK A01 T00820068  RH  091%=      5-min Rain = 0
KMC1 260952Z 06004KT 08/07 A3027 RMK A01 T00820068  RH  091%=      5-min Rain = 0
KMC1 260953Z 06003KT 08/07 A3027 RMK A01 T00820068  RH  091%=      5-min Rain = 0
KMC1 260954Z 06003KT 08/07 A3027 RMK A01 T00820068  RH  091%=      5-min Rain = 0
KMC1 260955Z 06003KT 08/07 A3027 RMK A01 T00820068  RH  091%=      5-min Rain = 0
KMC1 260956Z 06003KT 08/07 A3027 RMK A01 T00820068  RH  091%=      5-min Rain = 0
KMC1 260957Z 06003KT 08/07 A3027 RMK A01 T00820069  RH  092%=      5-min Rain = 0
KMC1 260958Z 06003KT 08/07 A3027 RMK A01 T00820069  RH  091%=      5-min Rain = 0
KMC1 260959Z 06004KT 08/07 A3027 RMK A01 T00820069  RH  091%=      5-min Rain = 0
KMC1 261000Z 06004KT 08/07 A3027 RMK A01 T00820068  RH  091%=      5-min Rain = 0
KMC1 261001Z 06004KT 08/07 A3027 RMK A01 T00820068  RH  091%=      5-min Rain = 0
KMC1 261002Z 06004KT 08/07 A3027 RMK A01 T00810068  RH  091%=      5-min Rain = 0
KMC1 261003Z 06003KT 08/07 A3027 RMK A01 T00810068  RH  091%=      5-min Rain = 0
KMC1 261004Z 06004KT 08/07 A3027 RMK A01 T00810067  RH  091%=      5-min Rain = 0
KMC1 261005Z 06003KT 08/07 A3027 RMK A01 T00810067  RH  091%=      5-min Rain = 0
KMC1 261006Z 06003KT 08/07 A3027 RMK A01 T00810067  RH  091%=      5-min Rain = 0
KMC1 261007Z 06003KT 08/07 A3027 RMK A01 T00800066  RH  091%=      5-min Rain = 0
KMC1 261008Z 06003KT 08/07 A3026 RMK A01 T00790066  RH  092%=      5-min Rain = 0
KMC1 261009Z 06003KT 08/07 A3027 RMK A01 T00790067  RH  092%=      5-min Rain = 0
KMC1 261010Z 06003KT 08/07 A3027 RMK A01 T00790067  RH  092%=      5-min Rain = 0
KMC1 261011Z 06004KT 08/07 A3027 RMK A01 T00790067  RH  092%=      5-min Rain = 0
KMC1 261012Z 07003KT 08/07 A3027 RMK A01 T00790067  RH  092%=      5-min Rain = 0
KMC1 261013Z 07004KT 08/07 A3027 RMK A01 T00790067  RH  092%=      5-min Rain = 0
KMC1 261014Z 07003KT 08/07 A3027 RMK A01 T00790067  RH  092%=      5-min Rain = 0
KMC1 261015Z 07004KT 08/07 A3027 RMK A01 T00790068  RH  093%=      5-min Rain = 0
KMC1 261016Z 07003KT 08/07 A3027 RMK A01 T00790068  RH  093%=      5-min Rain = 0
KMC1 261017Z 06004KT 08/07 A3027 RMK A01 T00790068  RH  093%=      5-min Rain = 0
KMC1 261018Z 06004KT 08/07 A3027 RMK A01 T00790067  RH  093%=      5-min Rain = 0
KMC1 261019Z 06003KT 08/07 A3027 RMK A01 T00790068  RH  093%=      5-min Rain = 0
KMC1 261020Z 07003KT 08/07 A3027 RMK A01 T00790068  RH  093%=      5-min Rain = 0
KMC1 261021Z 07003KT 08/07 A3027 RMK A01 T00790068  RH  093%=      5-min Rain = 0
KMC1 261022Z 06003KT 08/07 A3027 RMK A01 T00790068  RH  093%=      5-min Rain = 0
KMC1 261023Z 07004KT 08/07 A3027 RMK A01 T00790069  RH  093%=      5-min Rain = 0
KMC1 261024Z 07003KT 08/07 A3027 RMK A01 T00790068  RH  093%=      5-min Rain = 0
KMC1 261025Z 07004KT 08/07 A3027 RMK A01 T00790068  RH  093%=      5-min Rain = 0
KMC1 261026Z 08004KT 08/07 A3027 RMK A01 T00790068  RH  093%=      5-min Rain = 0
KMC1 261027Z 08004KT 08/07 A3027 RMK A01 T00800068  RH  093%=      5-min Rain = 0
KMC1 261028Z 08004KT 08/07 A3027 RMK A01 T00800069  RH  093%=      5-min Rain = 0
KMC1 261029Z 08004KT 08/07 A3027 RMK A01 T00800069  RH  093%=      5-min Rain = 0
KMC1 261030Z 08004KT 08/07 A3027 RMK A01 T00800069  RH  093%=      5-min Rain = 0
KMC1 261031Z 08005KT 08/07 A3027 RMK A01 T00810069  RH  092%=      5-min Rain = 0
KMC1 261032Z 07004KT 08/07 A3027 RMK A01 T00810069  RH  092%=      5-min Rain = 0
KMC1 261033Z 07005KT 08/07 A3027 RMK A01 T00810068  RH  092%=      5-min Rain = 0
KMC1 261034Z 07004KT 08/07 A3027 RMK A01 T00810068  RH  092%=      5-min Rain = 0
KMC1 261035Z 07005KT 08/07 A3027 RMK A01 T00810069  RH  092%=      5-min Rain = 0
KMC1 261036Z 06005KT 08/07 A3027 RMK A01 T00810069  RH  092%=      5-min Rain = 0
KMC1 261037Z 06005KT 08/07 A3027 RMK A01 T00820070  RH  092%=      5-min Rain = 0
KMC1 261038Z 07005KT 08/07 A3027 RMK A01 T00820070  RH  092%=      5-min Rain = 0
KMC1 261039Z 07005KT 08/07 A3027 RMK A01 T00820070  RH  092%=      5-min Rain = 0
KMC1 261040Z 07005KT 08/07 A3027 RMK A01 T00830070  RH  092%=      5-min Rain = 0
KMC1 261041Z 07005KT 08/07 A3027 RMK A01 T00830070  RH  092%=      5-min Rain = 0
KMC1 261042Z 07005KT 08/07 A3027 RMK A01 T00830070  RH  091%=      5-min Rain = 0
KMC1 261043Z 07005KT 08/07 A3027 RMK A01 T00830069  RH  091%=      5-min Rain = 0
KMC1 261044Z 07005KT 08/07 A3027 RMK A01 T00830070  RH  091%=      5-min Rain = 0
KMC1 261045Z 07005KT 08/07 A3027 RMK A01 T00830070  RH  091%=      5-min Rain = 0
KMC1 261046Z 07004KT 08/07 A3027 RMK A01 T00830070  RH  091%=      5-min Rain = 0
KMC1 261047Z 07005KT 08/07 A3027 RMK A01 T00830070  RH  091%=      5-min Rain = 0
KMC1 261048Z 07004KT 08/07 A3027 RMK A01 T00830070  RH  091%=      5-min Rain = 0
KMC1 261049Z 07004KT 08/07 A3027 RMK A01 T00830070  RH  091%=      5-min Rain = 0
KMC1 261050Z 08004KT 08/07 A3027 RMK A01 T00830070  RH  091%=      5-min Rain = 0
KMC1 261051Z 08003KT 08/07 A3027 RMK A01 T00830069  RH  091%=      5-min Rain = 0
KMC1 261052Z 08003KT 08/07 A3028 RMK A01 T00830070  RH  091%=      5-min Rain = 0
KMC1 261053Z 08003KT 08/07 A3028 RMK A01 T00830070  RH  091%=      5-min Rain = 0
KMC1 261054Z 07003KT 08/07 A3028 RMK A01 T00830070  RH  091%=      5-min Rain = 0
KMC1 261055Z 07003KT 08/07 A3028 RMK A01 T00830070  RH  091%=      5-min Rain = 0
KMC1 261056Z 08003KT 08/07 A3028 RMK A01 T00830070  RH  092%=      5-min Rain = 0
KMC1 261057Z 08002KT 08/07 A3028 RMK A01 T00830070  RH  092%=      5-min Rain = 0
KMC1 261058Z 08003KT 08/07 A3028 RMK A01 T00830070  RH  092%=      5-min Rain = 0
KMC1 261059Z 07003KT 08/07 A3028 RMK A01 T00830071  RH  092%=      5-min Rain = 0
KMC1 261100Z 07003KT 08/07 A3027 RMK A01 T00840071  RH  092%=      5-min Rain = 0
KMC1 261101Z 07003KT 08/07 A3027 RMK A01 T00840072  RH  092%=      5-min Rain = 0
KMC1 261102Z 07003KT 08/07 A3027 RMK A01 T00840072  RH  092%=      5-min Rain = 0
KMC1 261103Z 07003KT 08/07 A3027 RMK A01 T00840072  RH  092%=      5-min Rain = 0
KMC1 261104Z 07003KT 09/07 A3027 RMK A01 T00850072  RH  092%=      5-min Rain = 0
KMC1 261105Z 07003KT 08/07 A3028 RMK A01 T00840072  RH  092%=      5-min Rain = 0
KMC1 261106Z 07003KT 08/07 A3028 RMK A01 T00840072  RH  092%=      5-min Rain = 0
KMC1 261107Z 08003KT 09/07 A3028 RMK A01 T00850072  RH  092%=      5-min Rain = 0
KMC1 261108Z 08003KT 09/07 A3028 RMK A01 T00850072  RH  092%=      5-min Rain = 0
KMC1 261109Z 07003KT 09/07 A3028 RMK A01 T00850072  RH  092%=      5-min Rain = 0
KMC1 261110Z 07003KT 09/07 A3028 RMK A01 T00850072  RH  091%=      5-min Rain = 0
KMC1 261111Z 08002KT 09/07 A3028 RMK A01 T00850072  RH  091%=      5-min Rain = 0
KMC1 261112Z 07002KT 09/07 A3028 RMK A01 T00850072  RH  091%=      5-min Rain = 0
KMC1 261113Z 07002KT 09/07 A3028 RMK A01 T00850072  RH  091%=      5-min Rain = 0
KMC1 261114Z 07002KT 09/07 A3028 RMK A01 T00850072  RH  091%=      5-min Rain = 0
KMC1 261115Z 07002KT 09/07 A3028 RMK A01 T00850072  RH  091%=      5-min Rain = 0
KMC1 261116Z 06002KT 09/07 A3028 RMK A01 T00850072  RH  091%=      5-min Rain = 0
KMC1 261117Z 07002KT 09/07 A3028 RMK A01 T00850072  RH  091%=      5-min Rain = 0
KMC1 261118Z 07002KT 09/07 A3028 RMK A01 T00850072  RH  091%=      5-min Rain = 0
KMC1 261119Z 07002KT 09/07 A3028 RMK A01 T00850072  RH  091%=      5-min Rain = 0
KMC1 261120Z 07002KT 09/07 A3028 RMK A01 T00850072  RH  091%=      5-min Rain = 0
KMC1 261121Z 06002KT 09/07 A3028 RMK A01 T00850072  RH  091%=      5-min Rain = 0
KMC1 261122Z 06002KT 09/07 A3028 RMK A01 T00850072  RH  091%=      5-min Rain = 0
KMC1 261123Z 06002KT 09/07 A3028 RMK A01 T00850071  RH  091%=      5-min Rain = 0
KMC1 261124Z 06002KT 09/07 A3028 RMK A01 T00850072  RH  091%=      5-min Rain = 0
KMC1 261125Z 07002KT 09/07 A3028 RMK A01 T00850072  RH  091%=      5-min Rain = 0
KMC1 261126Z 06002KT 09/07 A3028 RMK A01 T00850072  RH  092%=      5-min Rain = 0
KMC1 261127Z 06002KT 09/07 A3028 RMK A01 T00850072  RH  092%=      5-min Rain = 0
KMC1 261128Z 06002KT 09/07 A3028 RMK A01 T00850072  RH  092%=      5-min Rain = 0
KMC1 261129Z 06003KT 09/07 A3028 RMK A01 T00850073  RH  092%=      5-min Rain = 0
KMC1 261130Z 05003KT 09/07 A3028 RMK A01 T00850073  RH  092%=      5-min Rain = 0
KMC1 261131Z 05003KT 09/07 A3028 RMK A01 T00860073  RH  092%=      5-min Rain = 0
KMC1 261132Z 05003KT 09/07 A3028 RMK A01 T00860073  RH  092%=      5-min Rain = 0
KMC1 261133Z 05002KT 09/07 A3028 RMK A01 T00860073  RH  092%=      5-min Rain = 0
KMC1 261134Z 06002KT 09/07 A3028 RMK A01 T00860073  RH  091%=      5-min Rain = 0
KMC1 261135Z 06002KT 09/07 A3028 RMK A01 T00860073  RH  091%=      5-min Rain = 0
KMC1 261136Z 05002KT 09/07 A3028 RMK A01 T00870073  RH  091%=      5-min Rain = 0
KMC1 261137Z 06001KT 09/07 A3028 RMK A01 T00860073  RH  091%=      5-min Rain = 0
KMC1 261138Z 06002KT 09/07 A3028 RMK A01 T00870073  RH  091%=      5-min Rain = 0
KMC1 261139Z 07002KT 09/07 A3028 RMK A01 T00860073  RH  091%=      5-min Rain = 0
KMC1 261140Z 07002KT 09/07 A3028 RMK A01 T00860073  RH  091%=      5-min Rain = 0
KMC1 261141Z 08002KT 09/07 A3029 RMK A01 T00860073  RH  091%=      5-min Rain = 0
KMC1 261142Z 07003KT 09/07 A3029 RMK A01 T00860073  RH  091%=      5-min Rain = 0
KMC1 261143Z 08002KT 09/07 A3029 RMK A01 T00860073  RH  091%=      5-min Rain = 0
KMC1 261144Z 07003KT 09/07 A3029 RMK A01 T00860073  RH  092%=      5-min Rain = 0
KMC1 261145Z 07003KT 09/07 A3029 RMK A01 T00860073  RH  092%=      5-min Rain = 0
KMC1 261146Z 07003KT 09/07 A3029 RMK A01 T00860072  RH  091%=      5-min Rain = 0
KMC1 261147Z 07003KT 09/07 A3029 RMK A01 T00860073  RH  091%=      5-min Rain = 0
KMC1 261148Z 07003KT 09/07 A3029 RMK A01 T00860073  RH  091%=      5-min Rain = 0
KMC1 261149Z 07003KT 09/07 A3029 RMK A01 T00850072  RH  091%=      5-min Rain = 0
KMC1 261150Z 07003KT 09/07 A3029 RMK A01 T00850072  RH  092%=      5-min Rain = 0
KMC1 261151Z 07003KT 09/07 A3029 RMK A01 T00850072  RH  092%=      5-min Rain = 0
KMC1 261152Z 07003KT 09/07 A3029 RMK A01 T00850072  RH  092%=      5-min Rain = 0
KMC1 261153Z 06002KT 09/07 A3029 RMK A01 T00850073  RH  092%=      5-min Rain = 0
KMC1 261154Z 06002KT 09/07 A3029 RMK A01 T00850073  RH  092%=      5-min Rain = 0
KMC1 261155Z 07002KT 09/07 A3029 RMK A01 T00850073  RH  092%=      5-min Rain = 0
KMC1 261156Z 07001KT 09/07 A3029 RMK A01 T00850073  RH  092%=      5-min Rain = 0
KMC1 261157Z 08001KT 09/07 A3029 RMK A01 T00850074  RH  092%=      5-min Rain = 0
KMC1 261158Z 10001KT 09/07 A303 RMK A01 T00860074  RH  092%=      5-min Rain = 0
KMC1 261159Z 11001KT 09/07 A303 RMK A01 T00860074  RH  092%=      5-min Rain = 0
KMC1 261200Z 10001KT 09/07 A303 RMK A01 T00860074  RH  092%=      5-min Rain = 0
KMC1 261201Z 10001KT 09/07 A303 RMK A01 T00860074  RH  092%=      5-min Rain = 0
KMC1 261202Z 09001KT 09/07 A303 RMK A01 T00860074  RH  092%=      5-min Rain = 0
KMC1 261203Z 08001KT 09/07 A303 RMK A01 T00860074  RH  092%=      5-min Rain = 0
KMC1 261204Z 08001KT 09/08 A303 RMK A01 T00860075  RH  092%=      5-min Rain = 0
KMC1 261205Z 08001KT 09/08 A303 RMK A01 T00860075  RH  092%=      5-min Rain = 0
KMC1 261206Z 08001KT 09/08 A303 RMK A01 T00860075  RH  093%=      5-min Rain = 0
KMC1 261207Z 08002KT 09/08 A303 RMK A01 T00860075  RH  092%=      5-min Rain = 0
KMC1 261208Z 07002KT 09/07 A303 RMK A01 T00870074  RH  092%=      5-min Rain = 0
KMC1 261209Z 08001KT 09/07 A303 RMK A01 T00870074  RH  092%=      5-min Rain = 0
KMC1 261210Z 08002KT 09/07 A303 RMK A01 T00870074  RH  092%=      5-min Rain = 0
KMC1 261211Z 07001KT 09/08 A303 RMK A01 T00870075  RH  092%=      5-min Rain = 0
KMC1 261212Z 07001KT 09/08 A303 RMK A01 T00870075  RH  092%=      5-min Rain = 0
KMC1 261213Z 07001KT 09/08 A303 RMK A01 T00870075  RH  092%=      5-min Rain = 0
KMC1 261214Z 08000KT 09/08 A303 RMK A01 T00870075  RH  092%=      5-min Rain = 0
KMC1 261215Z 00000KT 09/08 A303 RMK A01 T00870076  RH  093%=      5-min Rain = 0
KMC1 261216Z 09000KT 09/08 A303 RMK A01 T00870075  RH  092%=      5-min Rain = 0
KMC1 261217Z 00000KT 09/08 A303 RMK A01 T00870075  RH  092%=      5-min Rain = 0
KMC1 261218Z 09000KT 09/08 A303 RMK A01 T00870075  RH  092%=      5-min Rain = 0
KMC1 261219Z 08000KT 09/08 A303 RMK A01 T00870075  RH  092%=      5-min Rain = 0
KMC1 261220Z 07001KT 09/08 A303 RMK A01 T00870075  RH  092%=      5-min Rain = 0
KMC1 261221Z 06001KT 09/08 A303 RMK A01 T00880075  RH  092%=      5-min Rain = 0
KMC1 261222Z 05001KT 09/08 A303 RMK A01 T00880075  RH  092%=      5-min Rain = 0
KMC1 261223Z 05002KT 09/08 A303 RMK A01 T00880075  RH  092%=      5-min Rain = 0
KMC1 261224Z 04002KT 09/08 A303 RMK A01 T00880075  RH  092%=      5-min Rain = 0
KMC1 261225Z 03003KT 09/08 A303 RMK A01 T00890075  RH  091%=      5-min Rain = 0
KMC1 261226Z 03004KT 09/08 A303 RMK A01 T00890076  RH  091%=      5-min Rain = 0
KMC1 261227Z 03004KT 09/08 A303 RMK A01 T00890076  RH  091%=      5-min Rain = 0
KMC1 261228Z 03004KT 09/08 A303 RMK A01 T00890075  RH  091%=      5-min Rain = 0
KMC1 261229Z 03004KT 09/08 A303 RMK A01 T00890075  RH  091%=      5-min Rain = 0
KMC1 261230Z 04004KT 09/08 A303 RMK A01 T00890075  RH  091%=      5-min Rain = 0
KMC1 261231Z 04004KT 09/08 A303 RMK A01 T00890075  RH  091%=      5-min Rain = 0
KMC1 261232Z 05004KT 09/08 A303 RMK A01 T00890075  RH  091%=      5-min Rain = 0
KMC1 261233Z 05003KT 09/07 A303 RMK A01 T00880074  RH  091%=      5-min Rain = 0
KMC1 261234Z 05003KT 09/07 A303 RMK A01 T00880074  RH  091%=      5-min Rain = 0
KMC1 261235Z 05003KT 09/07 A303 RMK A01 T00880074  RH  091%=      5-min Rain = 0
KMC1 261236Z 05003KT 09/07 A303 RMK A01 T00870074  RH  091%=      5-min Rain = 0
KMC1 261237Z 04004KT 09/07 A303 RMK A01 T00860073  RH  092%=      5-min Rain = 0
KMC1 261238Z 04004KT 09/07 A303 RMK A01 T00860073  RH  092%=      5-min Rain = 0
KMC1 261239Z 04004KT 09/07 A303 RMK A01 T00850073  RH  092%=      5-min Rain = 0
KMC1 261240Z 03004KT 08/07 A303 RMK A01 T00840073  RH  092%=      5-min Rain = 0
KMC1 261241Z 03005KT 08/07 A303 RMK A01 T00840073  RH  093%=      5-min Rain = 0
KMC1 261242Z 03004KT 08/07 A303 RMK A01 T00840073  RH  093%=      5-min Rain = 0
KMC1 261243Z 04004KT 08/07 A303 RMK A01 T00830073  RH  093%=      5-min Rain = 0
KMC1 261244Z 04005KT 08/07 A303 RMK A01 T00830073  RH  093%=      5-min Rain = 0
KMC1 261245Z 05004KT 08/07 A3031 RMK A01 T00830073  RH  094%=      5-min Rain = 0
KMC1 261246Z 05003KT 08/07 A3031 RMK A01 T00830073  RH  094%=      5-min Rain = 0
KMC1 261247Z 06004KT 08/07 A3031 RMK A01 T00830073  RH  094%=      5-min Rain = 0
KMC1 261248Z 05004KT 08/07 A3031 RMK A01 T00820072  RH  094%=      5-min Rain = 0
KMC1 261249Z 06004KT 08/07 A303 RMK A01 T00820072  RH  094%=      5-min Rain = 0
KMC1 261250Z 06004KT 08/07 A3031 RMK A01 T00820072  RH  094%=      5-min Rain = 0
KMC1 261251Z 06004KT 08/07 A303 RMK A01 T00810072  RH  094%=      5-min Rain = 0
KMC1 261252Z 06004KT 08/07 A3031 RMK A01 T00810072  RH  094%=      5-min Rain = 0
KMC1 261253Z 06004KT 08/07 A303 RMK A01 T00810072  RH  094%=      5-min Rain = 0
KMC1 261254Z 07004KT 08/07 A303 RMK A01 T00810072  RH  094%=      5-min Rain = 0
KMC1 261255Z 06004KT 08/07 A303 RMK A01 T00810072  RH  094%=      5-min Rain = 0
KMC1 261256Z 07004KT 08/07 A303 RMK A01 T00810072  RH  094%=      5-min Rain = 0
KMC1 261257Z 06004KT 08/07 A303 RMK A01 T00810072  RH  095%=      5-min Rain = 0
KMC1 261258Z 06004KT 08/07 A303 RMK A01 T00810072  RH  095%=      5-min Rain = 0
KMC1 261259Z 06003KT 08/07 A303 RMK A01 T00810073  RH  095%=      5-min Rain = 0
KMC1 261300Z 06003KT 08/07 A303 RMK A01 T00820073  RH  095%=      5-min Rain = 0
KMC1 261301Z 06003KT 08/07 A3031 RMK A01 T00820073  RH  094%=      5-min Rain = 0
KMC1 261302Z 07003KT 08/07 A3031 RMK A01 T00820074  RH  094%=      5-min Rain = 0
KMC1 261303Z 06003KT 08/07 A3031 RMK A01 T00830074  RH  094%=      5-min Rain = 0
KMC1 261304Z 06003KT 08/07 A3031 RMK A01 T00820073  RH  094%=      5-min Rain = 0
KMC1 261305Z 06004KT 08/07 A3031 RMK A01 T00830073  RH  094%=      5-min Rain = 0
KMC1 261306Z 06003KT 08/07 A3031 RMK A01 T00830073  RH  094%=      5-min Rain = 0
KMC1 261307Z 05004KT 08/07 A3031 RMK A01 T00830073  RH  093%=      5-min Rain = 0
KMC1 261308Z 05004KT 08/07 A3031 RMK A01 T00830073  RH  093%=      5-min Rain = 0
KMC1 261309Z 05004KT 08/07 A3031 RMK A01 T00830074  RH  094%=      5-min Rain = 0
KMC1 261310Z 05004KT 08/07 A3031 RMK A01 T00840074  RH  094%=      5-min Rain = 0
KMC1 261311Z 05004KT 08/07 A3031 RMK A01 T00840074  RH  093%=      5-min Rain = 0
KMC1 261312Z 05005KT 08/07 A3031 RMK A01 T00840074  RH  093%=      5-min Rain = 0
KMC1 261313Z 05005KT 09/07 A3031 RMK A01 T00850074  RH  093%=      5-min Rain = 0
KMC1 261314Z 05005KT 09/07 A3031 RMK A01 T00850074  RH  093%=      5-min Rain = 0
KMC1 261315Z 05005KT 09/08 A3031 RMK A01 T00850075  RH  093%=      5-min Rain = 0
KMC1 261316Z 05005KT 09/08 A3031 RMK A01 T00850075  RH  093%=      5-min Rain = 0
KMC1 261317Z 05005KT 09/08 A3031 RMK A01 T00860075  RH  093%=      5-min Rain = 0
KMC1 261318Z 05004KT 09/08 A3031 RMK A01 T00870076  RH  093%=      5-min Rain = 0
KMC1 261319Z 05004KT 09/08 A3031 RMK A01 T00870076  RH  093%=      5-min Rain = 0
KMC1 261320Z 06004KT 09/08 A3031 RMK A01 T00880076  RH  092%=      5-min Rain = 0
KMC1 261321Z 05004KT 09/08 A3031 RMK A01 T00880076  RH  092%=      5-min Rain = 0
KMC1 261322Z 06004KT 09/08 A3031 RMK A01 T00880076  RH  092%=      5-min Rain = 0
KMC1 261323Z 07003KT 09/08 A3032 RMK A01 T00880076  RH  092%=      5-min Rain = 0
KMC1 261324Z 06003KT 09/08 A3032 RMK A01 T00880077  RH  092%=      5-min Rain = 0
KMC1 261325Z 05003KT 09/08 A3032 RMK A01 T00880077  RH  092%=      5-min Rain = 0
KMC1 261326Z 06003KT 09/08 A3032 RMK A01 T00890077  RH  092%=      5-min Rain = 0
KMC1 261327Z 06004KT 09/08 A3032 RMK A01 T00900077  RH  092%=      5-min Rain = 0
KMC1 261328Z 06004KT 09/08 A3032 RMK A01 T00910078  RH  092%=      5-min Rain = 0
KMC1 261329Z 06003KT 09/08 A3032 RMK A01 T00920079  RH  091%=      5-min Rain = 0
KMC1 261330Z 07003KT 09/08 A3032 RMK A01 T00930079  RH  091%=      5-min Rain = 0
KMC1 261331Z 06003KT 10/08 A3032 RMK A01 T00950080  RH  091%=      5-min Rain = 0
KMC1 261332Z 06003KT 10/08 A3032 RMK A01 T00960080  RH  090%=      5-min Rain = 0
KMC1 261333Z 07003KT 10/08 A3032 RMK A01 T00970080  RH  089%=      5-min Rain = 0
KMC1 261334Z 07004KT 10/08 A3032 RMK A01 T00980080  RH  089%=      5-min Rain = 0
KMC1 261335Z 07003KT 10/08 A3032 RMK A01 T00980079  RH  088%=      5-min Rain = 0
KMC1 261336Z 07004KT 10/08 A3032 RMK A01 T00990079  RH  088%=      5-min Rain = 0
KMC1 261337Z 07003KT 10/08 A3032 RMK A01 T00990079  RH  087%=      5-min Rain = 0
KMC1 261338Z 07004KT 10/08 A3032 RMK A01 T00990080  RH  088%=      5-min Rain = 0
KMC1 261339Z 07004KT 10/08 A3032 RMK A01 T00990080  RH  087%=      5-min Rain = 0
KMC1 261340Z 07004KT 10/08 A3032 RMK A01 T01000079  RH  087%=      5-min Rain = 0
KMC1 261341Z 07005KT 10/08 A3032 RMK A01 T01000080  RH  087%=      5-min Rain = 0
KMC1 261342Z 06003KT 10/08 A3032 RMK A01 T01000079  RH  087%=      5-min Rain = 0
KMC1 261343Z 06003KT 10/08 A3032 RMK A01 T01000079  RH  087%=      5-min Rain = 0
KMC1 261344Z 06004KT 10/08 A3032 RMK A01 T00990079  RH  087%=      5-min Rain = 0
KMC1 261345Z 07004KT 10/08 A3033 RMK A01 T01000079  RH  087%=      5-min Rain = 0
KMC1 261346Z 06004KT 10/08 A3033 RMK A01 T01000079  RH  087%=      5-min Rain = 0
KMC1 261347Z 07003KT 10/08 A3033 RMK A01 T01000080  RH  087%=      5-min Rain = 0
KMC1 261348Z 07003KT 10/08 A3033 RMK A01 T01000080  RH  087%=      5-min Rain = 0
KMC1 261349Z 07003KT 10/08 A3033 RMK A01 T01000080  RH  087%=      5-min Rain = 0
KMC1 261350Z 07003KT 10/08 A3032 RMK A01 T01000080  RH  087%=      5-min Rain = 0
KMC1 261351Z 07003KT 10/08 A3032 RMK A01 T01000080  RH  087%=      5-min Rain = 0
KMC1 261352Z 07003KT 10/08 A3032 RMK A01 T01000081  RH  087%=      5-min Rain = 0
KMC1 261353Z 07004KT 10/08 A3032 RMK A01 T01010081  RH  087%=      5-min Rain = 0
KMC1 261354Z 07003KT 10/08 A3033 RMK A01 T01010081  RH  087%=      5-min Rain = 0
KMC1 261355Z 08003KT 10/08 A3033 RMK A01 T01010081  RH  087%=      5-min Rain = 0
KMC1 261356Z 08003KT 10/08 A3033 RMK A01 T01020081  RH  087%=      5-min Rain = 0
KMC1 261357Z 08004KT 10/08 A3033 RMK A01 T01020082  RH  087%=      5-min Rain = 0
KMC1 261358Z 08003KT 10/08 A3033 RMK A01 T01030081  RH  086%=      5-min Rain = 0
KMC1 261359Z 07003KT 10/08 A3033 RMK A01 T01040082  RH  086%=      5-min Rain = 0
KMC1 261400Z 08003KT 10/08 A3033 RMK A01 T01040082  RH  086%=      5-min Rain = 0
KMC1 261401Z 07003KT 11/08 A3033 RMK A01 T01050083  RH  086%=      5-min Rain = 0
KMC1 261402Z 07004KT 11/08 A3033 RMK A01 T01060083  RH  086%=      5-min Rain = 0
KMC1 261403Z 07003KT 11/08 A3033 RMK A01 T01060083  RH  086%=      5-min Rain = 0
KMC1 261404Z 07003KT 11/08 A3033 RMK A01 T01070084  RH  085%=      5-min Rain = 0
KMC1 261405Z 08004KT 11/08 A3033 RMK A01 T01080084  RH  085%=      5-min Rain = 0
KMC1 261406Z 07004KT 11/08 A3033 RMK A01 T01090084  RH  084%=      5-min Rain = 0
KMC1 261407Z 07003KT 11/08 A3033 RMK A01 T01100084  RH  084%=      5-min Rain = 0
KMC1 261408Z 08003KT 11/09 A3033 RMK A01 T01110086  RH  084%=      5-min Rain = 0
KMC1 261409Z 07004KT 11/09 A3033 RMK A01 T01130088  RH  084%=      5-min Rain = 0
KMC1 261410Z 07003KT 12/09 A3034 RMK A01 T01150088  RH  084%=      5-min Rain = 0
KMC1 261411Z 08003KT 12/09 A3034 RMK A01 T01170088  RH  083%=      5-min Rain = 0
KMC1 261412Z 08001KT 12/09 A3034 RMK A01 T01180091  RH  083%=      5-min Rain = 0
KMC1 261413Z 07002KT 12/09 A3034 RMK A01 T01190091  RH  083%=      5-min Rain = 0
KMC1 261414Z 07002KT 12/09 A3034 RMK A01 T01200090  RH  082%=      5-min Rain = 0
KMC1 261415Z 08001KT 12/09 A3034 RMK A01 T01210089  RH  081%=      5-min Rain = 0
KMC1 261416Z 08002KT 12/09 A3034 RMK A01 T01210089  RH  080%=      5-min Rain = 0
KMC1 261417Z 07002KT 12/09 A3034 RMK A01 T01220088  RH  080%=      5-min Rain = 0
KMC1 261418Z 04001KT 12/09 A3034 RMK A01 T01220088  RH  080%=      5-min Rain = 0
KMC1 261419Z 04002KT 12/09 A3034 RMK A01 T01210088  RH  080%=      5-min Rain = 0
KMC1 261420Z 08003KT 12/09 A3034 RMK A01 T01200090  RH  082%=      5-min Rain = 0
KMC1 261421Z 09006KT 12/09 A3034 RMK A01 T01200089  RH  081%=      5-min Rain = 0
KMC1 261422Z 08003KT 12/09 A3034 RMK A01 T01220088  RH  080%=      5-min Rain = 0
KMC1 261423Z 07005KT 12/09 A3034 RMK A01 T01240089  RH  079%=      5-min Rain = 0
KMC1 261424Z 08005KT 13/09 A3034 RMK A01 T01250088  RH  078%=      5-min Rain = 0
KMC1 261425Z 07005KT 13/09 A3034 RMK A01 T01270087  RH  076%=      5-min Rain = 0
KMC1 261426Z 08005KT 13/09 A3034 RMK A01 T01280087  RH  076%=      5-min Rain = 0
KMC1 261427Z 08007KT 13/09 A3034 RMK A01 T01290087  RH  075%=      5-min Rain = 0
KMC1 261428Z 09008G14KT 13/09 A3034 RMK A01 T01310086  RH  074%=      5-min Rain = 0
KMC1 261429Z 10008KT 13/09 A3034 RMK A01 T01320085  RH  073%=      5-min Rain = 0
KMC1 261430Z 09007KT 13/09 A3034 RMK A01 T01330085  RH  073%=      5-min Rain = 0
KMC1 261431Z 08008KT 14/09 A3034 RMK A01 T01350085  RH  072%=      5-min Rain = 0
KMC1 261432Z 08007KT 14/09 A3034 RMK A01 T01370087  RH  072%=      5-min Rain = 0
KMC1 261433Z 08008KT 14/09 A3034 RMK A01 T01400086  RH  070%=      5-min Rain = 0
KMC1 261434Z 08007KT 14/09 A3034 RMK A01 T01410086  RH  070%=      5-min Rain = 0
KMC1 261435Z 08007KT 14/09 A3034 RMK A01 T01420086  RH  069%=      5-min Rain = 0
KMC1 261436Z 09005G10KT 14/09 A3034 RMK A01 T01420087  RH  069%=      5-min Rain = 0
KMC1 261437Z 08007KT 14/09 A3034 RMK A01 T01430088  RH  069%=      5-min Rain = 0
KMC1 261438Z 08005KT 14/09 A3034 RMK A01 T01430086  RH  068%=      5-min Rain = 0
KMC1 261439Z 07007KT 14/09 A3034 RMK A01 T01440089  RH  069%=      5-min Rain = 0
KMC1 261440Z 07007KT 15/09 A3034 RMK A01 T01460089  RH  069%=      5-min Rain = 0
KMC1 261441Z 07007KT 15/09 A3034 RMK A01 T01480090  RH  068%=      5-min Rain = 0
KMC1 261442Z 07005KT 15/09 A3034 RMK A01 T01490090  RH  068%=      5-min Rain = 0
KMC1 261443Z 08003KT 15/09 A3034 RMK A01 T01520093  RH  068%=      5-min Rain = 0
KMC1 261444Z 09007G12KT 16/09 A3034 RMK A01 T01550094  RH  067%=      5-min Rain = 0
KMC1 261445Z 08010KT 16/09 A3034 RMK A01 T01560088  RH  064%=      5-min Rain = 0
KMC1 261446Z 08006KT 16/09 A3034 RMK A01 T01550088  RH  064%=      5-min Rain = 0
KMC1 261447Z 08005KT 16/09 A3034 RMK A01 T01560089  RH  064%=      5-min Rain = 0
KMC1 261448Z 08007KT 16/09 A3034 RMK A01 T01560088  RH  064%=      5-min Rain = 0
KMC1 261449Z 07007G13KT 16/09 A3034 RMK A01 T01560089  RH  064%=      5-min Rain = 0
KMC1 261450Z 07008KT 16/09 A3034 RMK A01 T01580089  RH  064%=      5-min Rain = 0
KMC1 261451Z 08007KT 16/09 A3034 RMK A01 T01580089  RH  063%=      5-min Rain = 0
KMC1 261452Z 09006KT 16/09 A3034 RMK A01 T01600093  RH  065%=      5-min Rain = 0
KMC1 261453Z 07010KT 16/09 A3034 RMK A01 T01610090  RH  063%=      5-min Rain = 0
KMC1 261454Z 07010KT 16/09 A3034 RMK A01 T01620088  RH  062%=      5-min Rain = 0
KMC1 261455Z 08009KT 16/09 A3034 RMK A01 T01610086  RH  061%=      5-min Rain = 0
KMC1 261456Z 09008G13KT 16/09 A3034 RMK A01 T01590086  RH  062%=      5-min Rain = 0
KMC1 261457Z 08009G14KT 16/09 A3034 RMK A01 T01590086  RH  062%=      5-min Rain = 0
KMC1 261458Z 08010KT 16/09 A3034 RMK A01 T01580085  RH  062%=      5-min Rain = 0
KMC1 261459Z 07009KT 16/09 A3034 RMK A01 T01580087  RH  063%=      5-min Rain = 0
KMC1 261500Z 08006KT 16/09 A3034 RMK A01 T01580088  RH  063%=      5-min Rain = 0
KMC1 261501Z 09008KT 16/09 A3034 RMK A01 T01600091  RH  063%=      5-min Rain = 0
KMC1 261502Z 07010KT 16/09 A3034 RMK A01 T01620088  RH  061%=      5-min Rain = 0
KMC1 261503Z 08009KT 16/09 A3034 RMK A01 T01630087  RH  061%=      5-min Rain = 0
KMC1 261504Z 08008KT 16/09 A3034 RMK A01 T01630088  RH  061%=      5-min Rain = 0
KMC1 261505Z 08009KT 16/09 A3034 RMK A01 T01640086  RH  060%=      5-min Rain = 0
KMC1 261506Z 09010KT 17/09 A3034 RMK A01 T01650085  RH  059%=      5-min Rain = 0
KMC1 261507Z 08010G15KT 17/09 A3034 RMK A01 T01650085  RH  059%=      5-min Rain = 0
KMC1 261508Z 08009KT 17/09 A3034 RMK A01 T01650085  RH  059%=      5-min Rain = 0
KMC1 261509Z 08009KT 17/09 A3034 RMK A01 T01650085  RH  059%=      5-min Rain = 0
KMC1 261510Z 08008KT 17/09 A3034 RMK A01 T01660087  RH  059%=      5-min Rain = 0
KMC1 261511Z 09009KT 17/09 A3034 RMK A01 T01670086  RH  059%=      5-min Rain = 0
KMC1 261512Z 08006KT 17/09 A3034 RMK A01 T01690087  RH  059%=      5-min Rain = 0
KMC1 261513Z 08006G12KT 17/09 A3034 RMK A01 T01710089  RH  059%=      5-min Rain = 0
KMC1 261514Z 07010KT 17/09 A3034 RMK A01 T01720087  RH  057%=      5-min Rain = 0
KMC1 261515Z 08009KT 17/09 A3034 RMK A01 T01720087  RH  058%=      5-min Rain = 0
KMC1 261516Z 08005KT 17/09 A3034 RMK A01 T01720092  RH  059%=      5-min Rain = 0
KMC1 261517Z 09004KT 18/09 A3034 RMK A01 T01750093  RH  059%=      5-min Rain = 0
KMC1 261518Z 11008KT 18/09 A3034 RMK A01 T01770090  RH  057%=      5-min Rain = 0
KMC1 261519Z 10008KT 18/09 A3034 RMK A01 T01770087  RH  055%=      5-min Rain = 0
KMC1 261520Z 09006G11KT 18/09 A3034 RMK A01 T01760090  RH  057%=      5-min Rain = 0
KMC1 261521Z 08008KT 18/09 A3034 RMK A01 T01780090  RH  056%=      5-min Rain = 0
KMC1 261522Z 08008KT 18/09 A3034 RMK A01 T01800089  RH  055%=      5-min Rain = 0
KMC1 261523Z 07011KT 18/09 A3034 RMK A01 T01800086  RH  054%=      5-min Rain = 0
KMC1 261524Z 08009KT 18/09 A3034 RMK A01 T01800085  RH  054%=      5-min Rain = 0
KMC1 261525Z 08008KT 18/09 A3034 RMK A01 T01780085  RH  054%=      5-min Rain = 0
KMC1 261526Z 09008G14KT 18/09 A3034 RMK A01 T01780085  RH  054%=      5-min Rain = 0
KMC1 261527Z 09010KT 18/09 A3034 RMK A01 T01780085  RH  054%=      5-min Rain = 0
KMC1 261528Z 08010KT 18/09 A3034 RMK A01 T01790085  RH  054%=      5-min Rain = 0
KMC1 261529Z 07010KT 18/09 A3034 RMK A01 T01790085  RH  054%=      5-min Rain = 0
KMC1 261530Z 07011KT 18/08 A3034 RMK A01 T01790083  RH  054%=      5-min Rain = 0
KMC1 261531Z 08009KT 18/08 A3034 RMK A01 T01780083  RH  053%=      5-min Rain = 0
KMC1 261532Z 08008KT 18/09 A3034 RMK A01 T01780086  RH  055%=      5-min Rain = 0
KMC1 261533Z 09012KT 18/08 A3034 RMK A01 T01790083  RH  053%=      5-min Rain = 0
KMC1 261534Z 10009KT 18/08 A3034 RMK A01 T01780081  RH  053%=      5-min Rain = 0
KMC1 261535Z 08006G12KT 18/09 A3034 RMK A01 T01770086  RH  055%=      5-min Rain = 0
KMC1 261536Z 08005KT 18/09 A3034 RMK A01 T01800089  RH  055%=      5-min Rain = 0
KMC1 261537Z 09008KT 18/09 A3034 RMK A01 T01830091  RH  055%=      5-min Rain = 0
KMC1 261538Z 11008KT 18/09 A3034 RMK A01 T01840087  RH  053%=      5-min Rain = 0
KMC1 261539Z 08009KT 18/09 A3034 RMK A01 T01830087  RH  054%=      5-min Rain = 0
KMC1 261540Z 09008KT 18/09 A3034 RMK A01 T01830085  RH  053%=      5-min Rain = 0
KMC1 261541Z 08007G13KT 18/09 A3034 RMK A01 T01840089  RH  054%=      5-min Rain = 0
KMC1 261542Z 06007KT 19/09 A3034 RMK A01 T01850088  RH  053%=      5-min Rain = 0
KMC1 261543Z 08010KT 19/09 A3034 RMK A01 T01850088  RH  053%=      5-min Rain = 0
KMC1 261544Z 08009KT 19/09 A3034 RMK A01 T01850086  RH  052%=      5-min Rain = 0
KMC1 261545Z 07008G13KT 19/09 A3034 RMK A01 T01850085  RH  052%=      5-min Rain = 0
KMC1 261546Z 08010KT 19/09 A3034 RMK A01 T01850086  RH  052%=      5-min Rain = 0
KMC1 261547Z 08007KT 19/09 A3034 RMK A01 T01850087  RH  053%=      5-min Rain = 0
KMC1 261548Z 09005KT 19/09 A3034 RMK A01 T01850088  RH  053%=      5-min Rain = 0
KMC1 261549Z 09008KT 19/09 A3034 RMK A01 T01880090  RH  053%=      5-min Rain = 0
KMC1 261550Z 09008KT 19/09 A3034 RMK A01 T01890087  RH  052%=      5-min Rain = 0
KMC1 261551Z 10009KT 19/09 A3034 RMK A01 T01890086  RH  051%=      5-min Rain = 0
KMC1 261552Z 10008KT 19/08 A3034 RMK A01 T01880084  RH  051%=      5-min Rain = 0
KMC1 261553Z 09010KT 19/08 A3034 RMK A01 T01860084  RH  052%=      5-min Rain = 0
KMC1 261554Z 09009KT 18/09 A3034 RMK A01 T01840086  RH  053%=      5-min Rain = 0
KMC1 261555Z 08010KT 18/09 A3034 RMK A01 T01840085  RH  052%=      5-min Rain = 0
KMC1 261556Z 07006KT 19/09 A3034 RMK A01 T01860086  RH  052%=      5-min Rain = 0
KMC1 261557Z 07008KT 19/09 A3034 RMK A01 T01870088  RH  052%=      5-min Rain = 0
KMC1 261558Z 06008KT 19/09 A3034 RMK A01 T01880087  RH  052%=      5-min Rain = 0
KMC1 261559Z 06011KT 19/09 A3034 RMK A01 T01880088  RH  052%=      5-min Rain = 0
KMC1 261600Z 06008G13KT 19/09 A3034 RMK A01 T01890086  RH  051%=      5-min Rain = 0
KMC1 261601Z 06010KT 19/09 A3034 RMK A01 T01890087  RH  052%=      5-min Rain = 0
KMC1 261602Z 05011KT 19/09 A3034 RMK A01 T01890085  RH  051%=      5-min Rain = 0
KMC1 261603Z 06008KT 19/08 A3034 RMK A01 T01870083  RH  051%=      5-min Rain = 0
KMC1 261604Z 07007KT 19/09 A3034 RMK A01 T01860087  RH  052%=      5-min Rain = 0
KMC1 261605Z 07009KT 19/09 A3034 RMK A01 T01880087  RH  052%=      5-min Rain = 0
KMC1 261606Z 06008KT 19/09 A3034 RMK A01 T01900086  RH  051%=      5-min Rain = 0
KMC1 261607Z 06011KT 19/09 A3034 RMK A01 T01910087  RH  051%=      5-min Rain = 0
KMC1 261608Z 06008KT 19/08 A3034 RMK A01 T01920084  RH  050%=      5-min Rain = 0
KMC1 261609Z 07009KT 19/09 A3034 RMK A01 T01910086  RH  050%=      5-min Rain = 0
KMC1 261610Z 08006G11KT 19/09 A3034 RMK A01 T01910087  RH  051%=      5-min Rain = 0
KMC1 261611Z 07006KT 19/09 A3034 RMK A01 T01920088  RH  051%=      5-min Rain = 0
KMC1 261612Z 05008KT 19/09 A3034 RMK A01 T01940088  RH  050%=      5-min Rain = 0
KMC1 261613Z 05008G13KT 19/09 A3034 RMK A01 T01940085  RH  049%=      5-min Rain = 0
KMC1 261614Z 07009G15KT 19/09 A3034 RMK A01 T01940086  RH  050%=      5-min Rain = 0
KMC1 261615Z 06009G14KT 19/09 A3034 RMK A01 T01930086  RH  050%=      5-min Rain = 0
KMC1 261616Z 07006KT 19/09 A3034 RMK A01 T01940087  RH  050%=      5-min Rain = 0
KMC1 261617Z 06011KT 20/09 A3034 RMK A01 T01950085  RH  049%=      5-min Rain = 0
KMC1 261618Z 07008KT 19/08 A3034 RMK A01 T01940084  RH  049%=      5-min Rain = 0
KMC1 261619Z 08005KT 19/09 A3034 RMK A01 T01940086  RH  050%=      5-min Rain = 0
KMC1 261620Z 08006KT 20/09 A3034 RMK A01 T01960092  RH  051%=      5-min Rain = 0
KMC1 261621Z 07010KT 20/09 A3034 RMK A01 T01980087  RH  049%=      5-min Rain = 0
KMC1 261622Z 08009KT 20/09 A3034 RMK A01 T01990085  RH  048%=      5-min Rain = 0
KMC1 261623Z 09011KT 20/09 A3034 RMK A01 T01980085  RH  048%=      5-min Rain = 0
KMC1 261624Z 10007KT 20/08 A3034 RMK A01 T01970083  RH  048%=      5-min Rain = 0
KMC1 261625Z 09007KT 20/08 A3034 RMK A01 T01960083  RH  048%=      5-min Rain = 0
KMC1 261626Z 08008G13KT 20/08 A3034 RMK A01 T01960083  RH  048%=      5-min Rain = 0
KMC1 261627Z 09009KT 20/08 A3034 RMK A01 T01970084  RH  048%=      5-min Rain = 0
KMC1 261628Z 09007KT 20/08 A3034 RMK A01 T01980084  RH  048%=      5-min Rain = 0
KMC1 261629Z 11009KT 20/08 A3034 RMK A01 T02000084  RH  047%=      5-min Rain = 0
KMC1 261630Z 10008KT 20/08 A3034 RMK A01 T02000083  RH  047%=      5-min Rain = 0
KMC1 261631Z 10005KT 20/09 A3034 RMK A01 T01990087  RH  048%=      5-min Rain = 0
KMC1 261632Z 08005KT 20/09 A3034 RMK A01 T02010090  RH  049%=      5-min Rain = 0
KMC1 261633Z 09005KT 20/09 A3034 RMK A01 T02040090  RH  048%=      5-min Rain = 0
KMC1 261634Z 11007KT 21/09 A3034 RMK A01 T02060085  RH  046%=      5-min Rain = 0
KMC1 261635Z 10007KT 21/09 A3034 RMK A01 T02060087  RH  047%=      5-min Rain = 0
KMC1 261636Z 08007KT 21/09 A3034 RMK A01 T02060087  RH  046%=      5-min Rain = 0
KMC1 261637Z 11010KT 21/08 A3034 RMK A01 T02070084  RH  045%=      5-min Rain = 0
KMC1 261638Z 10006G11KT 20/08 A3034 RMK A01 T02040078  RH  044%=      5-min Rain = 0
KMC1 261639Z 11008KT 20/08 A3034 RMK A01 T02030083  RH  046%=      5-min Rain = 0
KMC1 261640Z 09006KT 20/08 A3034 RMK A01 T02030084  RH  046%=      5-min Rain = 0
KMC1 261641Z 08005KT 21/09 A3034 RMK A01 T02050089  RH  047%=      5-min Rain = 0
KMC1 261642Z 06005KT 21/09 A3034 RMK A01 T02080091  RH  047%=      5-min Rain = 0
KMC1 261643Z 05008G13KT 21/09 A3034 RMK A01 T02090085  RH  045%=      5-min Rain = 0
KMC1 261644Z 10008KT 21/09 A3034 RMK A01 T02080086  RH  045%=      5-min Rain = 0
KMC1 261645Z 07009KT 21/09 A3034 RMK A01 T02080085  RH  045%=      5-min Rain = 0
KMC1 261646Z 08008KT 21/08 A3034 RMK A01 T02070079  RH  044%=      5-min Rain = 0
KMC1 261647Z 08009G14KT 21/08 A3034 RMK A01 T02070084  RH  045%=      5-min Rain = 0
KMC1 261648Z 09008KT 21/08 A3034 RMK A01 T02070079  RH  044%=      5-min Rain = 0
KMC1 261649Z 11010KT 21/08 A3034 RMK A01 T02060080  RH  044%=      5-min Rain = 0
KMC1 261650Z 12011KT 20/08 A3034 RMK A01 T02040078  RH  044%=      5-min Rain = 0
KMC1 261651Z 10010KT 20/08 A3034 RMK A01 T02000076  RH  045%=      5-min Rain = 0
KMC1 261652Z 08010G15KT 20/08 A3034 RMK A01 T01980076  RH  045%=      5-min Rain = 0
KMC1 261653Z 09010KT 20/08 A3034 RMK A01 T01980076  RH  045%=      5-min Rain = 0
KMC1 261654Z 08008KT 20/08 A3034 RMK A01 T01970077  RH  046%=      5-min Rain = 0
KMC1 261655Z 09010KT 20/08 A3034 RMK A01 T01970077  RH  046%=      5-min Rain = 0
KMC1 261656Z 10008KT 20/07 A3034 RMK A01 T01970073  RH  045%=      5-min Rain = 0
KMC1 261657Z 11009KT 20/08 A3034 RMK A01 T01980076  RH  045%=      5-min Rain = 0
KMC1 261658Z 11011KT 20/08 A3033 RMK A01 T01990077  RH  045%=      5-min Rain = 0
KMC1 261659Z 09009KT 20/08 A3034 RMK A01 T02020079  RH  045%=      5-min Rain = 0
KMC1 261700Z 07010KT 20/08 A3034 RMK A01 T02040080  RH  045%=      5-min Rain = 0
KMC1 261701Z 08009KT 20/08 A3034 RMK A01 T02040079  RH  044%=      5-min Rain = 0
KMC1 261702Z 08006KT 21/08 A3034 RMK A01 T02050078  RH  044%=      5-min Rain = 0
KMC1 261703Z 12010G16KT 21/08 A3034 RMK A01 T02060078  RH  044%=      5-min Rain = 0
KMC1 261704Z 10008KT 21/08 A3034 RMK A01 T02070078  RH  043%=      5-min Rain = 0
KMC1 261705Z 10009KT 21/08 A3034 RMK A01 T02070075  RH  043%=      5-min Rain = 0
KMC1 261706Z 12009G14KT 21/08 A3033 RMK A01 T02060078  RH  044%=      5-min Rain = 0
KMC1 261707Z 11008KT 21/08 A3033 RMK A01 T02070076  RH  043%=      5-min Rain = 0
KMC1 261708Z 08005G10KT 21/08 A3033 RMK A01 T02070079  RH  043%=      5-min Rain = 0
KMC1 261709Z 07007G12KT 21/09 A3033 RMK A01 T02090085  RH  045%=      5-min Rain = 0
KMC1 261710Z 08012KT 21/08 A3033 RMK A01 T02110077  RH  042%=      5-min Rain = 0
KMC1 261711Z 08008KT 21/07 A3033 RMK A01 T02110074  RH  041%=      5-min Rain = 0
KMC1 261712Z 09007KT 21/08 A3033 RMK A01 T02100075  RH  042%=      5-min Rain = 0
KMC1 261713Z 10010G15KT 21/08 A3033 RMK A01 T02100076  RH  042%=      5-min Rain = 0
KMC1 261714Z 11009KT 21/07 A3033 RMK A01 T02110070  RH  040%=      5-min Rain = 0
KMC1 261715Z 09008KT 21/07 A3033 RMK A01 T02110073  RH  041%=      5-min Rain = 0
KMC1 261716Z 09010KT 21/08 A3033 RMK A01 T02120078  RH  042%=      5-min Rain = 0
KMC1 261717Z 08008G13KT 21/08 A3033 RMK A01 T02130077  RH  041%=      5-min Rain = 0
KMC1 261718Z 09009G14KT 21/08 A3033 RMK A01 T02120079  RH  042%=      5-min Rain = 0
KMC1 261719Z 09010KT 21/07 A3033 RMK A01 T02120073  RH  041%=      5-min Rain = 0
KMC1 261720Z 08007KT 21/08 A3033 RMK A01 T02100076  RH  042%=      5-min Rain = 0
KMC1 261721Z 07009KT 21/08 A3033 RMK A01 T02110077  RH  042%=      5-min Rain = 0
KMC1 261722Z 08010KT 21/08 A3033 RMK A01 T02110077  RH  042%=      5-min Rain = 0
KMC1 261723Z 10010G15KT 21/08 A3033 RMK A01 T02130077  RH  041%=      5-min Rain = 0
KMC1 261724Z 10012KT 21/07 A3033 RMK A01 T02140073  RH  040%=      5-min Rain = 0
KMC1 261725Z 11011KT 21/07 A3033 RMK A01 T02130072  RH  040%=      5-min Rain = 0
KMC1 261726Z 10011KT 21/08 A3033 RMK A01 T02110075  RH  041%=      5-min Rain = 0
KMC1 261727Z 10011KT 21/07 A3033 RMK A01 T02120071  RH  040%=      5-min Rain = 0
KMC1 261728Z 11009KT 21/07 A3033 RMK A01 T02100069  RH  040%=      5-min Rain = 0
KMC1 261729Z 11009KT 21/07 A3033 RMK A01 T02100074  RH  041%=      5-min Rain = 0
KMC1 261730Z 11008KT 21/07 A3033 RMK A01 T02120071  RH  040%=      5-min Rain = 0
KMC1 261731Z 12011KT 21/07 A3033 RMK A01 T02120073  RH  041%=      5-min Rain = 0
KMC1 261732Z 10010KT 21/07 A3033 RMK A01 T02130072  RH  040%=      5-min Rain = 0
KMC1 261733Z 09010KT 21/08 A3033 RMK A01 T02130078  RH  042%=      5-min Rain = 0
KMC1 261734Z 08008G13KT 22/07 A3033 RMK A01 T02150071  RH  039%=      5-min Rain = 0
KMC1 261735Z 07007KT 22/08 A3033 RMK A01 T02150077  RH  041%=      5-min Rain = 0
KMC1 261736Z 08009KT 22/08 A3033 RMK A01 T02180078  RH  041%=      5-min Rain = 0
KMC1 261737Z 08007KT 22/08 A3033 RMK A01 T02200078  RH  040%=      5-min Rain = 0
KMC1 261738Z 07009KT 22/07 A3033 RMK A01 T02220074  RH  038%=      5-min Rain = 0
KMC1 261739Z 10005KT 22/08 A3033 RMK A01 T02200077  RH  040%=      5-min Rain = 0
KMC1 261740Z 12008KT 22/08 A3033 RMK A01 T02210077  RH  039%=      5-min Rain = 0
KMC1 261741Z 13008KT 22/08 A3033 RMK A01 T02200075  RH  039%=      5-min Rain = 0
KMC1 261742Z 11011KT 22/07 A3032 RMK A01 T02160073  RH  040%=      5-min Rain = 0
KMC1 261743Z 12011KT 22/07 A3032 RMK A01 T02150074  RH  040%=      5-min Rain = 0
KMC1 261744Z 11009KT 21/07 A3032 RMK A01 T02140074  RH  040%=      5-min Rain = 0
KMC1 261745Z 10009KT 21/08 A3032 RMK A01 T02140075  RH  040%=      5-min Rain = 0
KMC1 261746Z 11009KT 22/07 A3032 RMK A01 T02170072  RH  039%=      5-min Rain = 0
KMC1 261747Z 11011KT 22/07 A3032 RMK A01 T02160068  RH  038%=      5-min Rain = 0
KMC1 261748Z 11010G15KT 22/07 A3032 RMK A01 T02160071  RH  039%=      5-min Rain = 0
KMC1 261749Z 12009KT 22/07 A3032 RMK A01 T02160071  RH  039%=      5-min Rain = 0
KMC1 261750Z 09006KT 22/08 A3032 RMK A01 T02160078  RH  041%=      5-min Rain = 0
KMC1 261751Z 08004KT 22/08 A3032 RMK A01 T02190076  RH  039%=      5-min Rain = 0
KMC1 261752Z 09009KT 22/08 A3032 RMK A01 T02220080  RH  040%=      5-min Rain = 0
KMC1 261753Z 09009KT 23/08 A3032 RMK A01 T02250076  RH  038%=      5-min Rain = 0
KMC1 261754Z 10009KT 23/07 A3032 RMK A01 T02250073  RH  037%=      5-min Rain = 0
KMC1 261755Z 11007KT 22/08 A3032 RMK A01 T02240076  RH  038%=      5-min Rain = 0
KMC1 261756Z 13013KT 23/07 A3032 RMK A01 T02250074  RH  038%=      5-min Rain = 0
KMC1 261757Z 10010KT 23/07 A3032 RMK A01 T02250073  RH  038%=      5-min Rain = 0
KMC1 261758Z 10011KT 23/07 A3032 RMK A01 T02260073  RH  037%=      5-min Rain = 0
KMC1 261759Z 11009KT 23/07 A3032 RMK A01 T02250070  RH  037%=      5-min Rain = 0
KMC1 261800Z 11010KT 22/07 A3032 RMK A01 T02230073  RH  038%=      5-min Rain = 0
KMC1 261801Z 12010KT 22/07 A3032 RMK A01 T02220073  RH  038%=      5-min Rain = 0
KMC1 261802Z 13009KT 22/07 A3032 RMK A01 T02200067  RH  037%=      5-min Rain = 0
KMC1 261803Z 12008KT 22/07 A3032 RMK A01 T02170068  RH  038%=      5-min Rain = 0
KMC1 261804Z 12009KT 22/07 A3032 RMK A01 T02150066  RH  038%=      5-min Rain = 0
KMC1 261805Z 11008KT 22/07 A3032 RMK A01 T02150067  RH  038%=      5-min Rain = 0
KMC1 261806Z 12009KT 22/07 A3031 RMK A01 T02160069  RH  039%=      5-min Rain = 0
KMC1 261807Z 11010KT 22/07 A3031 RMK A01 T02190074  RH  039%=      5-min Rain = 0
KMC1 261808Z 10010KT 22/07 A3031 RMK A01 T02220074  RH  038%=      5-min Rain = 0
KMC1 261809Z 10009KT 23/08 A3031 RMK A01 T02250077  RH  039%=      5-min Rain = 0
KMC1 261810Z 11011KT 23/07 A3031 RMK A01 T02250074  RH  038%=      5-min Rain = 0
KMC1 261811Z 11008KT 22/07 A3031 RMK A01 T02240071  RH  037%=      5-min Rain = 0
KMC1 261812Z 13008KT 22/07 A3031 RMK A01 T02220074  RH  038%=      5-min Rain = 0
KMC1 261813Z 11009KT 22/07 A3031 RMK A01 T02220071  RH  038%=      5-min Rain = 0
KMC1 261814Z 10008KT 22/07 A3031 RMK A01 T02220074  RH  039%=      5-min Rain = 0
KMC1 261815Z 08008KT 23/08 A3031 RMK A01 T02250076  RH  038%=      5-min Rain = 0
KMC1 261816Z 10011KT 23/08 A3031 RMK A01 T02280075  RH  037%=      5-min Rain = 0
KMC1 261817Z 10008KT 23/07 A3031 RMK A01 T02280072  RH  037%=      5-min Rain = 0
KMC1 261818Z 10007KT 23/07 A3031 RMK A01 T02260074  RH  038%=      5-min Rain = 0
KMC1 261819Z 08008KT 23/08 A3031 RMK A01 T02250075  RH  038%=      5-min Rain = 0
KMC1 261820Z 08006KT 23/08 A3031 RMK A01 T02260077  RH  038%=      5-min Rain = 0
KMC1 261821Z 08006KT 23/08 A3031 RMK A01 T02270078  RH  038%=      5-min Rain = 0
KMC1 261822Z 07008G14KT 23/08 A3031 RMK A01 T02280075  RH  037%=      5-min Rain = 0
KMC1 261823Z 09010KT 23/08 A3031 RMK A01 T02290080  RH  038%=      5-min Rain = 0
KMC1 261824Z 11009KT 23/08 A3031 RMK A01 T02320075  RH  037%=      5-min Rain = 0
KMC1 261825Z 13006KT 23/08 A3031 RMK A01 T02300078  RH  038%=      5-min Rain = 0
KMC1 261826Z 09006KT 23/08 A3031 RMK A01 T02310080  RH  038%=      5-min Rain = 0
KMC1 261827Z 09006KT 23/08 A3031 RMK A01 T02330077  RH  037%=      5-min Rain = 0
KMC1 261828Z 08005KT 23/08 A3031 RMK A01 T02330077  RH  037%=      5-min Rain = 0
KMC1 261829Z 08010KT 23/08 A303 RMK A01 T02320077  RH  037%=      5-min Rain = 0
KMC1 261830Z 08007KT 23/08 A303 RMK A01 T02310075  RH  037%=      5-min Rain = 0
KMC1 261831Z 07003KT 23/08 A303 RMK A01 T02280076  RH  038%=      5-min Rain = 0
KMC1 261832Z 08008KT 23/08 A303 RMK A01 T02280078  RH  038%=      5-min Rain = 0
KMC1 261833Z 10008KT 23/08 A303 RMK A01 T02290077  RH  037%=      5-min Rain = 0
KMC1 261834Z 11006KT 23/08 A303 RMK A01 T02340077  RH  037%=      5-min Rain = 0
KMC1 261835Z 12005KT 24/08 A303 RMK A01 T02360078  RH  036%=      5-min Rain = 0
KMC1 261836Z 07006KT 24/08 A303 RMK A01 T02360077  RH  036%=      5-min Rain = 0
KMC1 261837Z 08010KT 24/08 A303 RMK A01 T02350076  RH  036%=      5-min Rain = 0
KMC1 261838Z 07009KT 23/07 A303 RMK A01 T02310071  RH  036%=      5-min Rain = 0
KMC1 261839Z 08007KT 23/07 A303 RMK A01 T02280071  RH  036%=      5-min Rain = 0
KMC1 261840Z 07008G13KT 23/07 A303 RMK A01 T02270072  RH  037%=      5-min Rain = 0
KMC1 261841Z 07009KT 23/07 A303 RMK A01 T02260071  RH  037%=      5-min Rain = 0
KMC1 261842Z 07009KT 23/07 A303 RMK A01 T02250071  RH  037%=      5-min Rain = 0
KMC1 261843Z 07008KT 22/07 A303 RMK A01 T02240069  RH  037%=      5-min Rain = 0
KMC1 261844Z 06007KT 22/07 A303 RMK A01 T02240074  RH  038%=      5-min Rain = 0
KMC1 261845Z 08006KT 23/08 A303 RMK A01 T02270079  RH  038%=      5-min Rain = 0
KMC1 261846Z 08009KT 23/08 A303 RMK A01 T02320079  RH  037%=      5-min Rain = 0
KMC1 261847Z 07005G10KT 23/08 A303 RMK A01 T02340077  RH  037%=      5-min Rain = 0
KMC1 261848Z 10010KT 23/07 A303 RMK A01 T02340073  RH  036%=      5-min Rain = 0
KMC1 261849Z 10008KT 23/07 A3029 RMK A01 T02290068  RH  035%=      5-min Rain = 0
KMC1 261850Z 10010KT 23/07 A3029 RMK A01 T02250069  RH  037%=      5-min Rain = 0
KMC1 261851Z 09008KT 22/07 A3029 RMK A01 T02230069  RH  037%=      5-min Rain = 0
KMC1 261852Z 09007KT 22/07 A3029 RMK A01 T02220069  RH  037%=      5-min Rain = 0
KMC1 261853Z 10007KT 22/07 A3029 RMK A01 T02220070  RH  038%=      5-min Rain = 0
KMC1 261854Z 07009G14KT 22/07 A3029 RMK A01 T02230073  RH  038%=      5-min Rain = 0
KMC1 261855Z 08011KT 23/08 A3029 RMK A01 T02260079  RH  039%=      5-min Rain = 0
KMC1 261856Z 10008KT 23/08 A3029 RMK A01 T02310079  RH  038%=      5-min Rain = 0
KMC1 261857Z 11008KT 23/07 A3029 RMK A01 T02320074  RH  036%=      5-min Rain = 0
KMC1 261858Z 09007KT 23/08 A3029 RMK A01 T02320081  RH  038%=      5-min Rain = 0
KMC1 261859Z 11006KT 24/09 A3029 RMK A01 T02370086  RH  038%=      5-min Rain = 0
KMC1 261900Z 11007KT 24/08 A3029 RMK A01 T02390080  RH  036%=      5-min Rain = 0
KMC1 261901Z 11006KT 24/08 A3029 RMK A01 T02390083  RH  037%=      5-min Rain = 0
KMC1 261902Z 12005KT 24/07 A3029 RMK A01 T02390073  RH  034%=      5-min Rain = 0
KMC1 261903Z 15009KT 24/08 A3029 RMK A01 T02390078  RH  036%=      5-min Rain = 0
KMC1 261904Z 16004KT 24/07 A3029 RMK A01 T02390074  RH  035%=      5-min Rain = 0
KMC1 261905Z 10004KT 24/08 A3029 RMK A01 T02380080  RH  036%=      5-min Rain = 0
KMC1 261906Z 10005KT 24/08 A3029 RMK A01 T02380077  RH  036%=      5-min Rain = 0
KMC1 261907Z 11005KT 24/08 A3029 RMK A01 T02360075  RH  036%=      5-min Rain = 0
KMC1 261908Z 09006KT 24/08 A3029 RMK A01 T02350078  RH  036%=      5-min Rain = 0
KMC1 261909Z 08009KT 24/08 A3029 RMK A01 T02360078  RH  036%=      5-min Rain = 0
KMC1 261910Z 07008KT 24/08 A3029 RMK A01 T02360078  RH  036%=      5-min Rain = 0
KMC1 261911Z 06006KT 24/08 A3029 RMK A01 T02360078  RH  036%=      5-min Rain = 0
KMC1 261912Z 08004KT 24/08 A3028 RMK A01 T02350079  RH  037%=      5-min Rain = 0
KMC1 261913Z 08007KT 24/08 A3029 RMK A01 T02370084  RH  038%=      5-min Rain = 0
KMC1 261914Z 09007G12KT 24/09 A3029 RMK A01 T02410086  RH  037%=      5-min Rain = 0
KMC1 261915Z 08009KT 25/08 A3029 RMK A01 T02450082  RH  035%=      5-min Rain = 0
KMC1 261916Z 09005KT 25/08 A3029 RMK A01 T02460084  RH  036%=      5-min Rain = 0
KMC1 261917Z 09009KT 25/08 A3029 RMK A01 T02470078  RH  034%=      5-min Rain = 0
KMC1 261918Z 10007KT 25/08 A3029 RMK A01 T02450077  RH  034%=      5-min Rain = 0
KMC1 261919Z 13005KT 24/08 A3028 RMK A01 T02430076  RH  034%=      5-min Rain = 0
KMC1 261920Z 13006KT 24/08 A3028 RMK A01 T02410076  RH  035%=      5-min Rain = 0
KMC1 261921Z 13005KT 24/07 A3028 RMK A01 T02400074  RH  035%=      5-min Rain = 0
KMC1 261922Z 09006G12KT 24/08 A3028 RMK A01 T02400081  RH  036%=      5-min Rain = 0
KMC1 261923Z 12012KT 24/08 A3028 RMK A01 T02440081  RH  035%=      5-min Rain = 0
KMC1 261924Z 10007KT 24/08 A3028 RMK A01 T02420078  RH  035%=      5-min Rain = 0
KMC1 261925Z 09010KT 24/08 A3028 RMK A01 T02410080  RH  036%=      5-min Rain = 0
KMC1 261926Z 08007KT 24/08 A3028 RMK A01 T02410080  RH  036%=      5-min Rain = 0
KMC1 261927Z 10008KT 24/08 A3028 RMK A01 T02420082  RH  036%=      5-min Rain = 0
KMC1 261928Z 12009KT 24/08 A3028 RMK A01 T02430080  RH  035%=      5-min Rain = 0
KMC1 261929Z 11010KT 24/08 A3028 RMK A01 T02410077  RH  035%=      5-min Rain = 0
KMC1 261930Z 12007KT 24/08 A3028 RMK A01 T02360075  RH  036%=      5-min Rain = 0
KMC1 261931Z 08008KT 23/08 A3028 RMK A01 T02340078  RH  037%=      5-min Rain = 0
KMC1 261932Z 07004KT 23/08 A3028 RMK A01 T02340077  RH  037%=      5-min Rain = 0
KMC1 261933Z 10004KT 24/08 A3028 RMK A01 T02360080  RH  037%=      5-min Rain = 0
KMC1 261934Z 12003KT 24/08 A3028 RMK A01 T02370076  RH  036%=      5-min Rain = 0
KMC1 261935Z 12008KT 24/08 A3028 RMK A01 T02380082  RH  037%=      5-min Rain = 0
KMC1 261936Z 13006KT 24/08 A3028 RMK A01 T02370077  RH  036%=      5-min Rain = 0
KMC1 261937Z 10010KT 24/08 A3028 RMK A01 T02370080  RH  037%=      5-min Rain = 0
KMC1 261938Z 11008KT 24/08 A3028 RMK A01 T02370077  RH  036%=      5-min Rain = 0
KMC1 261939Z 10008KT 24/08 A3028 RMK A01 T02350081  RH  037%=      5-min Rain = 0
KMC1 261940Z 09005KT 24/08 A3028 RMK A01 T02350075  RH  036%=      5-min Rain = 0
KMC1 261941Z 09006KT 23/07 A3028 RMK A01 T02330074  RH  036%=      5-min Rain = 0
KMC1 261942Z 08006KT 23/08 A3028 RMK A01 T02310078  RH  038%=      5-min Rain = 0
KMC1 261943Z 07006KT 23/08 A3028 RMK A01 T02320082  RH  038%=      5-min Rain = 0
KMC1 261944Z 07005KT 23/08 A3028 RMK A01 T02340079  RH  037%=      5-min Rain = 0
KMC1 261945Z 06003KT 23/08 A3027 RMK A01 T02340079  RH  037%=      5-min Rain = 0
KMC1 261946Z 09003KT 23/08 A3027 RMK A01 T02340080  RH  037%=      5-min Rain = 0
KMC1 261947Z 12003KT 23/08 A3027 RMK A01 T02340075  RH  036%=      5-min Rain = 0
KMC1 261948Z 10004KT 23/08 A3027 RMK A01 T02330084  RH  038%=      5-min Rain = 0
KMC1 261949Z 10005G12KT 24/09 A3027 RMK A01 T02360089  RH  039%=      5-min Rain = 0
KMC1 261950Z 10009KT 24/08 A3027 RMK A01 T02380083  RH  037%=      5-min Rain = 0
KMC1 261951Z 09006KT 24/08 A3027 RMK A01 T02370084  RH  037%=      5-min Rain = 0
KMC1 261952Z 08007KT 24/08 A3027 RMK A01 T02360082  RH  037%=      5-min Rain = 0
KMC1 261953Z 09004KT 24/08 A3027 RMK A01 T02350081  RH  037%=      5-min Rain = 0
KMC1 261954Z 07004KT 23/09 A3027 RMK A01 T02340086  RH  039%=      5-min Rain = 0
KMC1 261955Z 11005KT 23/09 A3027 RMK A01 T02340085  RH  038%=      5-min Rain = 0
KMC1 261956Z 10007KT 24/09 A3027 RMK A01 T02350085  RH  038%=      5-min Rain = 0
KMC1 261957Z 08009KT 23/08 A3027 RMK A01 T02340083  RH  038%=      5-min Rain = 0
KMC1 261958Z 06006KT 23/08 A3027 RMK A01 T02330083  RH  038%=      5-min Rain = 0
KMC1 261959Z 08006KT 23/08 A3027 RMK A01 T02320081  RH  038%=      5-min Rain = 0
KMC1 262000Z 09005KT 23/08 A3027 RMK A01 T02310083  RH  039%=      5-min Rain = 0
KMC1 262001Z 11008KT 23/08 A3026 RMK A01 T02320084  RH  039%=      5-min Rain = 0
KMC1 262002Z 09007KT 23/09 A3026 RMK A01 T02320085  RH  039%=      5-min Rain = 0
KMC1 262003Z 10007KT 24/08 A3026 RMK A01 T02350084  RH  038%=      5-min Rain = 0
KMC1 262004Z 11006KT 24/09 A3026 RMK A01 T02350085  RH  038%=      5-min Rain = 0
KMC1 262005Z 13008KT 24/08 A3026 RMK A01 T02350083  RH  038%=      5-min Rain = 0
KMC1 262006Z 12009KT 24/08 A3026 RMK A01 T02350084  RH  038%=      5-min Rain = 0
KMC1 262007Z 09009KT 24/09 A3026 RMK A01 T02350086  RH  039%=      5-min Rain = 0
KMC1 262008Z 11008KT 24/08 A3026 RMK A01 T02350083  RH  038%=      5-min Rain = 0
KMC1 262009Z 13007KT 23/08 A3026 RMK A01 T02340081  RH  037%=      5-min Rain = 0
KMC1 262010Z 13008KT 23/08 A3026 RMK A01 T02320081  RH  038%=      5-min Rain = 0
KMC1 262011Z 13005KT 23/08 A3026 RMK A01 T02310081  RH  038%=      5-min Rain = 0
KMC1 262012Z 13003KT 23/09 A3026 RMK A01 T02320087  RH  040%=      5-min Rain = 0
KMC1 262013Z 12004KT 23/09 A3026 RMK A01 T02340089  RH  040%=      5-min Rain = 0
KMC1 262014Z 10003KT 24/09 A3026 RMK A01 T02360086  RH  038%=      5-min Rain = 0
KMC1 262015Z 13005KT 24/09 A3026 RMK A01 T02360089  RH  039%=      5-min Rain = 0
KMC1 262016Z 12008KT 24/09 A3026 RMK A01 T02370086  RH  038%=      5-min Rain = 0
KMC1 262017Z 13010KT 24/09 A3026 RMK A01 T02360088  RH  039%=      5-min Rain = 0
KMC1 262018Z 12007KT 24/09 A3026 RMK A01 T02350086  RH  039%=      5-min Rain = 0
KMC1 262019Z 13006KT 23/09 A3026 RMK A01 T02340090  RH  040%=      5-min Rain = 0
KMC1 262020Z 14007G12KT 24/09 A3026 RMK A01 T02360093  RH  040%=      5-min Rain = 0
KMC1 262021Z 15009KT 24/09 A3026 RMK A01 T02370089  RH  039%=      5-min Rain = 0
KMC1 262022Z 15006KT 24/09 A3026 RMK A01 T02380089  RH  039%=      5-min Rain = 0
KMC1 262023Z 11005KT 24/09 A3026 RMK A01 T02400094  RH  040%=      5-min Rain = 0
KMC1 262024Z 11007KT 24/09 A3025 RMK A01 T02410090  RH  038%=      5-min Rain = 0
KMC1 262025Z 14007KT 24/09 A3025 RMK A01 T02380089  RH  038%=      5-min Rain = 0
KMC1 262026Z 10009KT 24/09 A3026 RMK A01 T02370087  RH  038%=      5-min Rain = 0
KMC1 262027Z 10007KT 24/09 A3025 RMK A01 T02350086  RH  039%=      5-min Rain = 0
KMC1 262028Z 10006KT 23/09 A3025 RMK A01 T02340086  RH  039%=      5-min Rain = 0
KMC1 262029Z 12009KT 24/09 A3025 RMK A01 T02350090  RH  040%=      5-min Rain = 0
KMC1 262030Z 11008KT 24/09 A3025 RMK A01 T02350088  RH  039%=      5-min Rain = 0
KMC1 262031Z 11006KT 24/09 A3025 RMK A01 T02350091  RH  040%=      5-min Rain = 0
KMC1 262032Z 09005KT 24/09 A3025 RMK A01 T02350091  RH  040%=      5-min Rain = 0
KMC1 262033Z 08006KT 24/09 A3025 RMK A01 T02350094  RH  041%=      5-min Rain = 0
KMC1 262034Z 08007KT 24/09 A3025 RMK A01 T02360093  RH  040%=      5-min Rain = 0
KMC1 262035Z 08004KT 24/09 A3025 RMK A01 T02360094  RH  040%=      5-min Rain = 0
KMC1 262036Z 09006KT 24/10 A3025 RMK A01 T02370098  RH  041%=      5-min Rain = 0
KMC1 262037Z 09006KT 24/09 A3025 RMK A01 T02380091  RH  039%=      5-min Rain = 0
KMC1 262038Z 10006KT 24/09 A3025 RMK A01 T02390087  RH  038%=      5-min Rain = 0
KMC1 262039Z 10003KT 24/09 A3024 RMK A01 T02380088  RH  038%=      5-min Rain = 0
KMC1 262040Z 04006KT 24/09 A3024 RMK A01 T02380089  RH  039%=      5-min Rain = 0
KMC1 262041Z 07006KT 24/10 A3024 RMK A01 T02430099  RH  040%=      5-min Rain = 0
KMC1 262042Z 06006KT 25/09 A3024 RMK A01 T02480093  RH  037%=      5-min Rain = 0
KMC1 262043Z 07007KT 25/09 A3024 RMK A01 T02500093  RH  037%=      5-min Rain = 0
KMC1 262044Z 06007G12KT 25/09 A3024 RMK A01 T02490091  RH  037%=      5-min Rain = 0
KMC1 262045Z 07006KT 25/09 A3024 RMK A01 T02480091  RH  037%=      5-min Rain = 0
KMC1 262046Z 06009KT 25/09 A3024 RMK A01 T02480090  RH  037%=      5-min Rain = 0
KMC1 262047Z 07007G12KT 25/09 A3024 RMK A01 T02480092  RH  037%=      5-min Rain = 0
KMC1 262048Z 09010KT 25/10 A3024 RMK A01 T02500095  RH  038%=      5-min Rain = 0
KMC1 262049Z 10009KT 25/10 A3024 RMK A01 T02510095  RH  037%=      5-min Rain = 0
KMC1 262050Z 07005KT 25/09 A3024 RMK A01 T02500093  RH  037%=      5-min Rain = 0
KMC1 262051Z 10005G12KT 25/10 A3024 RMK A01 T02500099  RH  039%=      5-min Rain = 0
KMC1 262052Z 10008KT 25/10 A3024 RMK A01 T02510096  RH  037%=      5-min Rain = 0
KMC1 262053Z 12006KT 25/09 A3024 RMK A01 T02500094  RH  037%=      5-min Rain = 0
KMC1 262054Z 12006KT 25/09 A3024 RMK A01 T02490093  RH  037%=      5-min Rain = 0
KMC1 262055Z 11005KT 25/09 A3024 RMK A01 T02480093  RH  037%=      5-min Rain = 0
KMC1 262056Z 10007KT 25/09 A3024 RMK A01 T02470094  RH  038%=      5-min Rain = 0
KMC1 262057Z 09005KT 25/09 A3024 RMK A01 T02470094  RH  038%=      5-min Rain = 0
KMC1 262058Z 11006KT 25/09 A3024 RMK A01 T02490094  RH  038%=      5-min Rain = 0
KMC1 262059Z 09007KT 25/09 A3024 RMK A01 T02490093  RH  037%=      5-min Rain = 0
KMC1 262100Z 10008KT 25/09 A3024 RMK A01 T02490093  RH  037%=      5-min Rain = 0
KMC1 262101Z 11008KT 25/09 A3024 RMK A01 T02480094  RH  038%=      5-min Rain = 0
KMC1 262102Z 12009KT 25/09 A3024 RMK A01 T02470090  RH  037%=      5-min Rain = 0
KMC1 262103Z 12005KT 25/09 A3024 RMK A01 T02450094  RH  038%=      5-min Rain = 0
KMC1 262104Z 12008KT 25/10 A3023 RMK A01 T02460095  RH  038%=      5-min Rain = 0
KMC1 262105Z 13008KT 25/10 A3023 RMK A01 T02490098  RH  038%=      5-min Rain = 0
KMC1 262106Z 13009KT 25/10 A3023 RMK A01 T02520095  RH  037%=      5-min Rain = 0
KMC1 262107Z 14008KT 25/10 A3023 RMK A01 T02510099  RH  038%=      5-min Rain = 0
KMC1 262108Z 15008KT 25/10 A3023 RMK A01 T02520097  RH  037%=      5-min Rain = 0
KMC1 262109Z 14006KT 25/09 A3023 RMK A01 T02500093  RH  037%=      5-min Rain = 0
KMC1 262110Z 12004KT 25/09 A3023 RMK A01 T02460091  RH  038%=      5-min Rain = 0
KMC1 262111Z 16004KT 24/10 A3023 RMK A01 T02430095  RH  039%=      5-min Rain = 0
KMC1 262112Z 13003KT 25/10 A3023 RMK A01 T02450098  RH  039%=      5-min Rain = 0
KMC1 262113Z 12009KT 25/10 A3023 RMK A01 T02490097  RH  038%=      5-min Rain = 0
KMC1 262114Z 10009KT 25/09 A3023 RMK A01 T02500092  RH  037%=      5-min Rain = 0
KMC1 262115Z 11007KT 25/09 A3023 RMK A01 T02480089  RH  036%=      5-min Rain = 0
KMC1 262116Z 08006KT 25/10 A3023 RMK A01 T02460095  RH  038%=      5-min Rain = 0
KMC1 262117Z 08007KT 25/09 A3023 RMK A01 T02480093  RH  038%=      5-min Rain = 0
KMC1 262118Z 09004KT 25/09 A3023 RMK A01 T02480094  RH  038%=      5-min Rain = 0
KMC1 262119Z 09005KT 25/09 A3023 RMK A01 T02490094  RH  038%=      5-min Rain = 0
KMC1 262120Z 07007KT 25/10 A3023 RMK A01 T02510098  RH  038%=      5-min Rain = 0
KMC1 262121Z 07009KT 25/09 A3023 RMK A01 T02520090  RH  036%=      5-min Rain = 0
KMC1 262122Z 10008KT 25/09 A3023 RMK A01 T02510089  RH  036%=      5-min Rain = 0
KMC1 262123Z 08005KT 25/09 A3023 RMK A01 T02490090  RH  036%=      5-min Rain = 0
KMC1 262124Z 07008KT 25/09 A3023 RMK A01 T02490091  RH  037%=      5-min Rain = 0
KMC1 262125Z 07009KT 25/09 A3023 RMK A01 T02510094  RH  037%=      5-min Rain = 0
KMC1 262126Z 07008KT 25/09 A3022 RMK A01 T02520090  RH  036%=      5-min Rain = 0
KMC1 262127Z 08008G13KT 25/10 A3023 RMK A01 T02530095  RH  037%=      5-min Rain = 0
KMC1 262128Z 09007KT 25/09 A3022 RMK A01 T02540094  RH  036%=      5-min Rain = 0
KMC1 262129Z 07005G10KT 25/09 A3022 RMK A01 T02540094  RH  036%=      5-min Rain = 0
KMC1 262130Z 07007KT 25/09 A3022 RMK A01 T02540089  RH  035%=      5-min Rain = 0
KMC1 262131Z 11006KT 25/09 A3022 RMK A01 T02520091  RH  036%=      5-min Rain = 0
KMC1 262132Z 10007KT 25/09 A3022 RMK A01 T02510090  RH  036%=      5-min Rain = 0
KMC1 262133Z 09009KT 25/09 A3022 RMK A01 T02500087  RH  036%=      5-min Rain = 0
KMC1 262134Z 07005KT 25/09 A3022 RMK A01 T02480091  RH  037%=      5-min Rain = 0
KMC1 262135Z 08006KT 25/09 A3022 RMK A01 T02500094  RH  037%=      5-min Rain = 0
KMC1 262136Z 08010KT 25/09 A3022 RMK A01 T02520091  RH  036%=      5-min Rain = 0
KMC1 262137Z 07010KT 25/09 A3022 RMK A01 T02530091  RH  036%=      5-min Rain = 0
KMC1 262138Z 07006G12KT 25/09 A3022 RMK A01 T02530092  RH  036%=      5-min Rain = 0
KMC1 262139Z 09007KT 25/09 A3022 RMK A01 T02530091  RH  036%=      5-min Rain = 0
KMC1 262140Z 08005KT 25/10 A3022 RMK A01 T02540095  RH  037%=      5-min Rain = 0
KMC1 262141Z 08007G12KT 26/09 A3022 RMK A01 T02550092  RH  036%=      5-min Rain = 0
KMC1 262142Z 08009KT 25/09 A3022 RMK A01 T02540090  RH  035%=      5-min Rain = 0
KMC1 262143Z 08007KT 25/09 A3022 RMK A01 T02520090  RH  036%=      5-min Rain = 0
KMC1 262144Z 10007KT 25/09 A3022 RMK A01 T02510089  RH  036%=      5-min Rain = 0
KMC1 262145Z 10007KT 25/09 A3022 RMK A01 T02490086  RH  035%=      5-min Rain = 0
KMC1 262146Z 10005KT 25/09 A3022 RMK A01 T02470088  RH  036%=      5-min Rain = 0
KMC1 262147Z 09006KT 25/09 A3022 RMK A01 T02480092  RH  037%=      5-min Rain = 0
KMC1 262148Z 08007KT 25/09 A3022 RMK A01 T02500087  RH  036%=      5-min Rain = 0
KMC1 262149Z 08007G12KT 25/09 A3022 RMK A01 T02510089  RH  036%=      5-min Rain = 0
KMC1 262150Z 06006KT 25/09 A3022 RMK A01 T02520089  RH  036%=      5-min Rain = 0
KMC1 262151Z 06005KT 25/09 A3022 RMK A01 T02530089  RH  035%=      5-min Rain = 0
KMC1 262152Z 07005KT 25/09 A3022 RMK A01 T02530088  RH  035%=      5-min Rain = 0
KMC1 262153Z 06006KT 25/09 A3022 RMK A01 T02530092  RH  036%=      5-min Rain = 0
KMC1 262154Z 08007KT 25/09 A3022 RMK A01 T02540092  RH  036%=      5-min Rain = 0
KMC1 262155Z 09006KT 26/09 A3022 RMK A01 T02550089  RH  035%=      5-min Rain = 0
KMC1 262156Z 10007KT 26/09 A3021 RMK A01 T02550087  RH  034%=      5-min Rain = 0
KMC1 262157Z 08009KT 25/09 A3021 RMK A01 T02540090  RH  035%=      5-min Rain = 0
KMC1 262158Z 08011KT 25/09 A3021 RMK A01 T02530087  RH  035%=      5-min Rain = 0
KMC1 262159Z 09008KT 25/08 A3021 RMK A01 T02520084  RH  034%=      5-min Rain = 0
KMC1 262200Z 09011G16KT 25/08 A3021 RMK A01 T02500083  RH  034%=      5-min Rain = 0
KMC1 262201Z 09009KT 25/08 A3021 RMK A01 T02490084  RH  035%=      5-min Rain = 0
KMC1 262202Z 08008G13KT 25/09 A3021 RMK A01 T02490085  RH  035%=      5-min Rain = 0
KMC1 262203Z 09009KT 25/09 A3021 RMK A01 T02510088  RH  036%=      5-min Rain = 0
KMC1 262204Z 07007KT 25/09 A3021 RMK A01 T02530087  RH  035%=      5-min Rain = 0
KMC1 262205Z 06005KT 25/09 A3021 RMK A01 T02540089  RH  035%=      5-min Rain = 0
KMC1 262206Z 08008KT 25/08 A3021 RMK A01 T02540083  RH  034%=      5-min Rain = 0
KMC1 262207Z 08006KT 25/09 A3021 RMK A01 T02530085  RH  034%=      5-min Rain = 0
KMC1 262208Z 08009KT 25/09 A3021 RMK A01 T02530086  RH  035%=      5-min Rain = 0
KMC1 262209Z 09008KT 25/08 A3021 RMK A01 T02540082  RH  033%=      5-min Rain = 0
KMC1 262210Z 10007KT 25/08 A3021 RMK A01 T02530080  RH  033%=      5-min Rain = 0
KMC1 262211Z 06010KT 25/08 A3021 RMK A01 T02500078  RH  033%=      5-min Rain = 0
KMC1 262212Z 08010KT 25/08 A3021 RMK A01 T02460077  RH  034%=      5-min Rain = 0
KMC1 262213Z 08009KT 24/08 A3021 RMK A01 T02430076  RH  034%=      5-min Rain = 0
KMC1 262214Z 08007KT 24/08 A3021 RMK A01 T02430079  RH  035%=      5-min Rain = 0
KMC1 262215Z 07005KT 24/08 A3021 RMK A01 T02440080  RH  035%=      5-min Rain = 0
KMC1 262216Z 06006KT 25/08 A3021 RMK A01 T02450082  RH  035%=      5-min Rain = 0
KMC1 262217Z 06004KT 25/08 A3021 RMK A01 T02470083  RH  035%=      5-min Rain = 0
KMC1 262218Z 09006G11KT 25/08 A3021 RMK A01 T02480080  RH  034%=      5-min Rain = 0
KMC1 262219Z 08009KT 25/08 A3021 RMK A01 T02490081  RH  034%=      5-min Rain = 0
KMC1 262220Z 09008KT 25/08 A3021 RMK A01 T02490081  RH  034%=      5-min Rain = 0
KMC1 262221Z 09009KT 25/08 A3021 RMK A01 T02500080  RH  034%=      5-min Rain = 0
KMC1 262222Z 11007KT 25/08 A3021 RMK A01 T02500082  RH  034%=      5-min Rain = 0
KMC1 262223Z 11008KT 25/08 A3021 RMK A01 T02500083  RH  035%=      5-min Rain = 0
KMC1 262224Z 10007KT 25/08 A3021 RMK A01 T02510084  RH  035%=      5-min Rain = 0
KMC1 262225Z 08010KT 25/08 A3021 RMK A01 T02500082  RH  034%=      5-min Rain = 0
KMC1 262226Z 07006G14KT 25/08 A3021 RMK A01 T02510083  RH  034%=      5-min Rain = 0
KMC1 262227Z 07009KT 25/08 A3021 RMK A01 T02510081  RH  034%=      5-min Rain = 0
KMC1 262228Z 07010G15KT 25/08 A3021 RMK A01 T02520082  RH  034%=      5-min Rain = 0
KMC1 262229Z 08009KT 25/08 A302 RMK A01 T02520078  RH  033%=      5-min Rain = 0
KMC1 262230Z 09010KT 25/08 A302 RMK A01 T02510080  RH  034%=      5-min Rain = 0
KMC1 262231Z 08009KT 25/08 A302 RMK A01 T02510080  RH  034%=      5-min Rain = 0
KMC1 262232Z 07009KT 25/08 A302 RMK A01 T02510078  RH  033%=      5-min Rain = 0
KMC1 262233Z 10009KT 25/08 A302 RMK A01 T02510077  RH  033%=      5-min Rain = 0
KMC1 262234Z 10008KT 25/08 A302 RMK A01 T02510079  RH  033%=      5-min Rain = 0
KMC1 262235Z 08006KT 25/08 A3021 RMK A01 T02510079  RH  033%=      5-min Rain = 0
KMC1 262236Z 07007KT 25/08 A3021 RMK A01 T02500076  RH  033%=      5-min Rain = 0
KMC1 262237Z 07007KT 25/08 A3021 RMK A01 T02510080  RH  034%=      5-min Rain = 0
KMC1 262238Z 06008KT 25/08 A3021 RMK A01 T02510077  RH  033%=      5-min Rain = 0
KMC1 262239Z 06007KT 25/08 A3021 RMK A01 T02510078  RH  033%=      5-min Rain = 0
KMC1 262240Z 06010KT 25/08 A3021 RMK A01 T02500079  RH  034%=      5-min Rain = 0
KMC1 262241Z 07010KT 25/08 A3021 RMK A01 T02500076  RH  033%=      5-min Rain = 0
KMC1 262242Z 08010KT 25/07 A3021 RMK A01 T02490074  RH  033%=      5-min Rain = 0
KMC1 262243Z 08010KT 25/08 A3021 RMK A01 T02480076  RH  033%=      5-min Rain = 0
KMC1 262244Z 08010KT 25/08 A3021 RMK A01 T02480078  RH  034%=      5-min Rain = 0
KMC1 262245Z 10009KT 25/08 A3021 RMK A01 T02490077  RH  033%=      5-min Rain = 0
KMC1 262246Z 09008KT 25/08 A3021 RMK A01 T02490080  RH  034%=      5-min Rain = 0
KMC1 262247Z 10009KT 25/08 A3021 RMK A01 T02490078  RH  034%=      5-min Rain = 0
KMC1 262248Z 09007KT 25/08 A3021 RMK A01 T02470075  RH  033%=      5-min Rain = 0
KMC1 262249Z 08007G12KT 25/08 A3021 RMK A01 T02450079  RH  035%=      5-min Rain = 0
KMC1 262250Z 08010KT 25/08 A3021 RMK A01 T02450078  RH  034%=      5-min Rain = 0
KMC1 262251Z 09011G16KT 25/08 A3021 RMK A01 T02450075  RH  034%=      5-min Rain = 0
KMC1 262252Z 08011G16KT 24/08 A3021 RMK A01 T02430075  RH  034%=      5-min Rain = 0
KMC1 262253Z 08008G13KT 24/07 A3021 RMK A01 T02400073  RH  034%=      5-min Rain = 0
KMC1 262254Z 07007KT 24/07 A3021 RMK A01 T02380074  RH  035%=      5-min Rain = 0
KMC1 262255Z 09011KT 24/07 A3021 RMK A01 T02370073  RH  035%=      5-min Rain = 0
KMC1 262256Z 09008KT 24/07 A3021 RMK A01 T02360073  RH  035%=      5-min Rain = 0
KMC1 262257Z 09010KT 24/08 A3021 RMK A01 T02360075  RH  036%=      5-min Rain = 0
KMC1 262258Z 10009KT 24/07 A3021 RMK A01 T02360072  RH  035%=      5-min Rain = 0
KMC1 262259Z 10007KT 24/07 A3021 RMK A01 T02350071  RH  035%=      5-min Rain = 0
KMC1 262300Z 08006KT 24/07 A3021 RMK A01 T02350073  RH  035%=      5-min Rain = 0
KMC1 262301Z 08006KT 24/08 A3021 RMK A01 T02350076  RH  036%=      5-min Rain = 0
KMC1 262302Z 09006KT 24/07 A3021 RMK A01 T02370074  RH  035%=      5-min Rain = 0
KMC1 262303Z 08006KT 24/08 A3021 RMK A01 T02380076  RH  035%=      5-min Rain = 0
KMC1 262304Z 09006G13KT 24/07 A3021 RMK A01 T02390074  RH  035%=      5-min Rain = 0
KMC1 262305Z 09009KT 24/07 A3021 RMK A01 T02400072  RH  034%=      5-min Rain = 0
KMC1 262306Z 09007KT 24/07 A3021 RMK A01 T02390074  RH  035%=      5-min Rain = 0
KMC1 262307Z 08010KT 24/07 A3021 RMK A01 T02400073  RH  034%=      5-min Rain = 0
KMC1 262308Z 10008KT 24/07 A3021 RMK A01 T02400071  RH  034%=      5-min Rain = 0
KMC1 262309Z 09005KT 24/07 A302 RMK A01 T02390073  RH  035%=      5-min Rain = 0
KMC1 262310Z 09010KT 24/07 A302 RMK A01 T02380072  RH  034%=      5-min Rain = 0
KMC1 262311Z 08009KT 24/07 A302 RMK A01 T02370070  RH  034%=      5-min Rain = 0
KMC1 262312Z 09009KT 24/07 A302 RMK A01 T02350069  RH  034%=      5-min Rain = 0
KMC1 262313Z 07008G13KT 23/07 A302 RMK A01 T02340071  RH  035%=      5-min Rain = 0
KMC1 262314Z 09009KT 23/07 A302 RMK A01 T02330071  RH  035%=      5-min Rain = 0
KMC1 262315Z 08009KT 23/07 A302 RMK A01 T02330070  RH  035%=      5-min Rain = 0
KMC1 262316Z 09007KT 23/07 A302 RMK A01 T02330069  RH  035%=      5-min Rain = 0
KMC1 262317Z 09007KT 23/07 A302 RMK A01 T02320069  RH  035%=      5-min Rain = 0
KMC1 262318Z 09006KT 23/07 A302 RMK A01 T02320071  RH  035%=      5-min Rain = 0
KMC1 262319Z 09006KT 23/07 A302 RMK A01 T02320072  RH  036%=      5-min Rain = 0
KMC1 262320Z 10008KT 23/07 A302 RMK A01 T02330073  RH  036%=      5-min Rain = 0
KMC1 262321Z 11009KT 23/07 A302 RMK A01 T02340069  RH  035%=      5-min Rain = 0
KMC1 262322Z 10009KT 23/07 A302 RMK A01 T02340070  RH  035%=      5-min Rain = 0
KMC1 262323Z 10009KT 24/07 A3021 RMK A01 T02350071  RH  035%=      5-min Rain = 0
KMC1 262324Z 09007KT 24/07 A3021 RMK A01 T02350071  RH  035%=      5-min Rain = 0
KMC1 262325Z 10007KT 24/07 A3021 RMK A01 T02350072  RH  035%=      5-min Rain = 0
KMC1 262326Z 11009KT 24/07 A3021 RMK A01 T02350071  RH  035%=      5-min Rain = 0
KMC1 262327Z 10006KT 24/07 A3021 RMK A01 T02350071  RH  035%=      5-min Rain = 0
KMC1 262328Z 09005KT 24/07 A3021 RMK A01 T02350072  RH  035%=      5-min Rain = 0
KMC1 262329Z 08005KT 23/07 A3021 RMK A01 T02340073  RH  036%=      5-min Rain = 0
KMC1 262330Z 07008KT 24/07 A3021 RMK A01 T02350072  RH  035%=      5-min Rain = 0
KMC1 262331Z 09007KT 24/07 A3021 RMK A01 T02360070  RH  034%=      5-min Rain = 0
KMC1 262332Z 09008KT 24/07 A3021 RMK A01 T02360071  RH  035%=      5-min Rain = 0
KMC1 262333Z 07006KT 24/07 A3021 RMK A01 T02360073  RH  035%=      5-min Rain = 0
KMC1 262334Z 09008KT 24/07 A3021 RMK A01 T02360071  RH  035%=      5-min Rain = 0
KMC1 262335Z 08007KT 24/07 A3021 RMK A01 T02360071  RH  035%=      5-min Rain = 0
KMC1 262336Z 09007KT 24/07 A3021 RMK A01 T02360071  RH  035%=      5-min Rain = 0
KMC1 262337Z 09008KT 24/07 A3021 RMK A01 T02360072  RH  035%=      5-min Rain = 0
KMC1 262338Z 09008KT 24/07 A3021 RMK A01 T02370072  RH  035%=      5-min Rain = 0
KMC1 262339Z 09008KT 24/07 A3021 RMK A01 T02370071  RH  034%=      5-min Rain = 0
KMC1 262340Z 07010KT 24/07 A3021 RMK A01 T02380073  RH  035%=      5-min Rain = 0
KMC1 262341Z 08011KT 24/07 A3021 RMK A01 T02370071  RH  034%=      5-min Rain = 0
KMC1 262342Z 09009G14KT 24/07 A3021 RMK A01 T02380071  RH  034%=      5-min Rain = 0
KMC1 262343Z 09007KT 24/07 A3021 RMK A01 T02370073  RH  035%=      5-min Rain = 0
KMC1 262344Z 07007KT 24/07 A3021 RMK A01 T02370072  RH  035%=      5-min Rain = 0
KMC1 262345Z 07010KT 24/07 A3021 RMK A01 T02370071  RH  034%=      5-min Rain = 0
KMC1 262346Z 08008KT 24/07 A3021 RMK A01 T02370070  RH  034%=      5-min Rain = 0
KMC1 262347Z 07005KT 24/07 A3021 RMK A01 T02370073  RH  035%=      5-min Rain = 0
KMC1 262348Z 08008G13KT 24/07 A3021 RMK A01 T02370073  RH  035%=      5-min Rain = 0
KMC1 262349Z 08011KT 24/07 A3021 RMK A01 T02370072  RH  035%=      5-min Rain = 0
KMC1 262350Z 08011KT 24/07 A3021 RMK A01 T02360071  RH  035%=      5-min Rain = 0
KMC1 262351Z 08010G15KT 24/07 A3021 RMK A01 T02360070  RH  034%=      5-min Rain = 0
KMC1 262352Z 09007G13KT 24/07 A3021 RMK A01 T02360072  RH  035%=      5-min Rain = 0
KMC1 262353Z 09008G13KT 24/07 A302 RMK A01 T02360073  RH  035%=      5-min Rain = 0
KMC1 262354Z 08007KT 24/07 A302 RMK A01 T02360073  RH  035%=      5-min Rain = 0
KMC1 262355Z 09008KT 24/07 A302 RMK A01 T02360072  RH  035%=      5-min Rain = 0
KMC1 262356Z 08006KT 24/07 A302 RMK A01 T02360073  RH  035%=      5-min Rain = 0
KMC1 262357Z 07008KT 24/07 A302 RMK A01 T02360073  RH  035%=      5-min Rain = 0
KMC1 262358Z 08006KT 24/07 A302 RMK A01 T02360074  RH  035%=      5-min Rain = 0
KMC1 262359Z 08008KT 24/07 A302 RMK A01 T02350072  RH  035%=      5-min Rain = 0
KMC1 270000Z 08006KT 24/07 A302 RMK A01 T02350073  RH  035%=      5-min Rain = 0
KMC1 270001Z 08006KT 23/07 A302 RMK A01 T02340074  RH  036%=      5-min Rain = 0
KMC1 270002Z 09007KT 23/08 A302 RMK A01 T02340076  RH  036%=      5-min Rain = 0
KMC1 270003Z 09007KT 23/07 A302 RMK A01 T02340074  RH  036%=      5-min Rain = 0
KMC1 270004Z 08007KT 23/07 A302 RMK A01 T02340074  RH  036%=      5-min Rain = 0
KMC1 270005Z 08006G11KT 23/08 A302 RMK A01 T02330075  RH  036%=      5-min Rain = 0
KMC1 270006Z 09007KT 23/08 A302 RMK A01 T02330075  RH  036%=      5-min Rain = 0
KMC1 270007Z 08008KT 23/07 A302 RMK A01 T02330074  RH  036%=      5-min Rain = 0
KMC1 270008Z 08012G17KT 23/07 A302 RMK A01 T02330072  RH  036%=      5-min Rain = 0
KMC1 270009Z 09009G14KT 23/07 A302 RMK A01 T02320069  RH  035%=      5-min Rain = 0
KMC1 270010Z 10008KT 23/07 A302 RMK A01 T02310071  RH  036%=      5-min Rain = 0
KMC1 270011Z 09008KT 23/07 A302 RMK A01 T02300072  RH  036%=      5-min Rain = 0
KMC1 270012Z 09006KT 23/07 A302 RMK A01 T02300072  RH  036%=      5-min Rain = 0
KMC1 270013Z 09008KT 23/07 A302 RMK A01 T02300073  RH  036%=      5-min Rain = 0
KMC1 270014Z 08008KT 23/07 A302 RMK A01 T02300072  RH  036%=      5-min Rain = 0
KMC1 270015Z 09007KT 23/07 A302 RMK A01 T02290071  RH  036%=      5-min Rain = 0
KMC1 270016Z 09009KT 23/07 A302 RMK A01 T02280072  RH  036%=      5-min Rain = 0
KMC1 270017Z 09010KT 23/07 A302 RMK A01 T02280071  RH  036%=      5-min Rain = 0
KMC1 270018Z 08008G13KT 23/07 A302 RMK A01 T02270070  RH  036%=      5-min Rain = 0
KMC1 270019Z 09010KT 23/07 A3021 RMK A01 T02270070  RH  036%=      5-min Rain = 0
KMC1 270020Z 08008KT 23/07 A3021 RMK A01 T02270071  RH  037%=      5-min Rain = 0
KMC1 270021Z 09006KT 23/07 A3021 RMK A01 T02260071  RH  037%=      5-min Rain = 0
KMC1 270022Z 09007KT 23/07 A3021 RMK A01 T02260072  RH  037%=      5-min Rain = 0
KMC1 270023Z 09009KT 23/07 A3021 RMK A01 T02250071  RH  037%=      5-min Rain = 0
KMC1 270024Z 08008G13KT 22/07 A3021 RMK A01 T02240071  RH  037%=      5-min Rain = 0
KMC1 270025Z 09007KT 22/07 A3021 RMK A01 T02240071  RH  037%=      5-min Rain = 0
KMC1 270026Z 08009KT 22/07 A3021 RMK A01 T02230072  RH  038%=      5-min Rain = 0
KMC1 270027Z 08011KT 22/07 A3021 RMK A01 T02220071  RH  038%=      5-min Rain = 0
KMC1 270028Z 08008KT 22/07 A3021 RMK A01 T02210071  RH  038%=      5-min Rain = 0
KMC1 270029Z 09008KT 22/07 A3021 RMK A01 T02210071  RH  038%=      5-min Rain = 0
KMC1 270030Z 09009KT 22/07 A3021 RMK A01 T02200071  RH  038%=      5-min Rain = 0
KMC1 270031Z 09008KT 22/07 A3021 RMK A01 T02200071  RH  038%=      5-min Rain = 0
KMC1 270032Z 09008KT 22/07 A3021 RMK A01 T02190071  RH  038%=      5-min Rain = 0
KMC1 270033Z 08008G13KT 22/07 A3021 RMK A01 T02190071  RH  038%=      5-min Rain = 0
KMC1 270034Z 08009KT 22/07 A3021 RMK A01 T02180071  RH  038%=      5-min Rain = 0
KMC1 270035Z 08006KT 22/07 A3021 RMK A01 T02180071  RH  039%=      5-min Rain = 0
KMC1 270036Z 09006KT 22/07 A3021 RMK A01 T02170071  RH  039%=      5-min Rain = 0
KMC1 270037Z 09008KT 22/07 A3021 RMK A01 T02170071  RH  039%=      5-min Rain = 0
KMC1 270038Z 09009KT 22/07 A3021 RMK A01 T02170070  RH  039%=      5-min Rain = 0
KMC1 270039Z 09007KT 22/07 A3021 RMK A01 T02170070  RH  039%=      5-min Rain = 0
KMC1 270040Z 09008KT 22/07 A3021 RMK A01 T02170070  RH  039%=      5-min Rain = 0
KMC1 270041Z 09008KT 22/07 A3021 RMK A01 T02160070  RH  039%=      5-min Rain = 0
KMC1 270042Z 09007KT 22/07 A3021 RMK A01 T02160070  RH  039%=      5-min Rain = 0
KMC1 270043Z 10007KT 22/07 A3021 RMK A01 T02160070  RH  039%=      5-min Rain = 0
KMC1 270044Z 09006KT 22/07 A3021 RMK A01 T02150071  RH  039%=      5-min Rain = 0
KMC1 270045Z 09006KT 21/07 A3021 RMK A01 T02140071  RH  040%=      5-min Rain = 0
KMC1 270046Z 09008KT 21/07 A3021 RMK A01 T02130071  RH  040%=      5-min Rain = 0
KMC1 270047Z 09008KT 21/07 A3022 RMK A01 T02130071  RH  040%=      5-min Rain = 0
KMC1 270048Z 09005KT 21/07 A3022 RMK A01 T02120071  RH  040%=      5-min Rain = 0
KMC1 270049Z 09006KT 21/07 A3022 RMK A01 T02120071  RH  040%=      5-min Rain = 0
KMC1 270050Z 09006KT 21/07 A3022 RMK A01 T02110071  RH  040%=      5-min Rain = 0
KMC1 270051Z 09006KT 21/07 A3022 RMK A01 T02110071  RH  040%=      5-min Rain = 0
KMC1 270052Z 08005KT 21/07 A3022 RMK A01 T02100071  RH  041%=      5-min Rain = 0
KMC1 270053Z 08005KT 21/07 A3022 RMK A01 T02090072  RH  041%=      5-min Rain = 0
KMC1 270054Z 08005KT 21/07 A3022 RMK A01 T02090071  RH  041%=      5-min Rain = 0
KMC1 270055Z 08005G10KT 21/07 A3022 RMK A01 T02080072  RH  041%=      5-min Rain = 0
KMC1 270056Z 09007KT 21/07 A3022 RMK A01 T02070071  RH  041%=      5-min Rain = 0
KMC1 270057Z 09006KT 21/07 A3022 RMK A01 T02070071  RH  041%=      5-min Rain = 0
KMC1 270058Z 09005KT 21/07 A3022 RMK A01 T02070071  RH  042%=      5-min Rain = 0
KMC1 270059Z 09006KT 21/07 A3022 RMK A01 T02060071  RH  042%=      5-min Rain = 0
KMC1 270100Z 08005KT 21/07 A3022 RMK A01 T02050071  RH  042%=      5-min Rain = 0
KMC1 270101Z 08006KT 21/07 A3022 RMK A01 T02050071  RH  042%=      5-min Rain = 0
KMC1 270102Z 09006KT 21/07 A3022 RMK A01 T02050070  RH  042%=      5-min Rain = 0
KMC1 270103Z 09006KT 20/07 A3022 RMK A01 T02040070  RH  042%=      5-min Rain = 0
KMC1 270104Z 09006KT 20/07 A3022 RMK A01 T02040071  RH  042%=      5-min Rain = 0
KMC1 270105Z 09006KT 20/07 A3022 RMK A01 T02030071  RH  042%=      5-min Rain = 0
KMC1 270106Z 09006KT 20/07 A3022 RMK A01 T02030071  RH  042%=      5-min Rain = 0
KMC1 270107Z 08006KT 20/07 A3022 RMK A01 T02020071  RH  042%=      5-min Rain = 0
KMC1 270108Z 09005KT 20/07 A3022 RMK A01 T02020071  RH  043%=      5-min Rain = 0
KMC1 270109Z 09006KT 20/07 A3022 RMK A01 T02010071  RH  043%=      5-min Rain = 0
KMC1 270110Z 10006KT 20/07 A3022 RMK A01 T02010071  RH  043%=      5-min Rain = 0
KMC1 270111Z 09005KT 20/07 A3022 RMK A01 T02010071  RH  043%=      5-min Rain = 0
KMC1 270112Z 10006KT 20/07 A3022 RMK A01 T02000070  RH  043%=      5-min Rain = 0
KMC1 270113Z 09005KT 20/07 A3022 RMK A01 T02000071  RH  043%=      5-min Rain = 0
KMC1 270114Z 09006KT 20/07 A3022 RMK A01 T02000071  RH  043%=      5-min Rain = 0
KMC1 270115Z 09007KT 20/07 A3022 RMK A01 T01990071  RH  043%=      5-min Rain = 0
KMC1 270116Z 09006KT 20/07 A3022 RMK A01 T01990070  RH  043%=      5-min Rain = 0
KMC1 270117Z 08006KT 20/07 A3022 RMK A01 T01990070  RH  043%=      5-min Rain = 0
KMC1 270118Z 09005KT 20/07 A3022 RMK A01 T01980071  RH  043%=      5-min Rain = 0
KMC1 270119Z 09006KT 20/07 A3022 RMK A01 T01980071  RH  044%=      5-min Rain = 0
KMC1 270120Z 09006KT 20/07 A3022 RMK A01 T01980071  RH  044%=      5-min Rain = 0
KMC1 270121Z 09006KT 20/07 A3022 RMK A01 T01980070  RH  044%=      5-min Rain = 0
KMC1 270122Z 09005KT 20/07 A3022 RMK A01 T01970071  RH  044%=      5-min Rain = 0
KMC1 270123Z 08006KT 20/07 A3022 RMK A01 T01970071  RH  044%=      5-min Rain = 0
KMC1 270124Z 09004KT 20/07 A3022 RMK A01 T01960071  RH  044%=      5-min Rain = 0
KMC1 270125Z 09006KT 20/07 A3022 RMK A01 T01960070  RH  044%=      5-min Rain = 0
KMC1 270126Z 09005KT 20/07 A3022 RMK A01 T01960070  RH  044%=      5-min Rain = 0
KMC1 270127Z 08005KT 20/07 A3022 RMK A01 T01950070  RH  044%=      5-min Rain = 0
KMC1 270128Z 09005KT 19/07 A3022 RMK A01 T01940070  RH  044%=      5-min Rain = 0
KMC1 270129Z 09005KT 19/07 A3022 RMK A01 T01940070  RH  045%=      5-min Rain = 0
KMC1 270130Z 09005KT 19/07 A3022 RMK A01 T01930071  RH  045%=      5-min Rain = 0
KMC1 270131Z 08005KT 19/07 A3022 RMK A01 T01930071  RH  045%=      5-min Rain = 0
KMC1 270132Z 09005KT 19/07 A3022 RMK A01 T01920071  RH  045%=      5-min Rain = 0
KMC1 270133Z 09005KT 19/07 A3023 RMK A01 T01910071  RH  046%=      5-min Rain = 0
KMC1 270134Z 09005KT 19/07 A3023 RMK A01 T01910071  RH  046%=      5-min Rain = 0
KMC1 270135Z 08005KT 19/07 A3023 RMK A01 T01900071  RH  046%=      5-min Rain = 0
KMC1 270136Z 08005KT 19/07 A3022 RMK A01 T01890070  RH  046%=      5-min Rain = 0
KMC1 270137Z 09006KT 19/07 A3022 RMK A01 T01890070  RH  046%=      5-min Rain = 0
KMC1 270138Z 09005KT 19/07 A3022 RMK A01 T01890070  RH  046%=      5-min Rain = 0
KMC1 270139Z 09006KT 19/07 A3022 RMK A01 T01890070  RH  046%=      5-min Rain = 0
KMC1 270140Z 09006KT 19/07 A3022 RMK A01 T01880070  RH  046%=      5-min Rain = 0
KMC1 270141Z 09006KT 19/07 A3022 RMK A01 T01880070  RH  046%=      5-min Rain = 0
KMC1 270142Z 08005KT 19/07 A3022 RMK A01 T01870070  RH  046%=      5-min Rain = 0
KMC1 270143Z 09006KT 19/07 A3022 RMK A01 T01870069  RH  046%=      5-min Rain = 0
KMC1 270144Z 09006KT 19/07 A3022 RMK A01 T01870070  RH  046%=      5-min Rain = 0
KMC1 270145Z 08005KT 19/07 A3022 RMK A01 T01870070  RH  046%=      5-min Rain = 0
KMC1 270146Z 09006KT 19/07 A3022 RMK A01 T01860070  RH  047%=      5-min Rain = 0
KMC1 270147Z 08006KT 19/07 A3022 RMK A01 T01860070  RH  047%=      5-min Rain = 0
KMC1 270148Z 08006KT 19/07 A3022 RMK A01 T01860069  RH  047%=      5-min Rain = 0
KMC1 270149Z 08006KT 19/07 A3022 RMK A01 T01860070  RH  047%=      5-min Rain = 0
KMC1 270150Z 08007KT 19/07 A3022 RMK A01 T01850069  RH  047%=      5-min Rain = 0
KMC1 270151Z 09006KT 18/07 A3022 RMK A01 T01840069  RH  047%=      5-min Rain = 0
KMC1 270152Z 08006KT 18/07 A3022 RMK A01 T01840069  RH  047%=      5-min Rain = 0
KMC1 270153Z 09006KT 18/07 A3022 RMK A01 T01840069  RH  047%=      5-min Rain = 0
KMC1 270154Z 09006KT 18/07 A3022 RMK A01 T01830068  RH  047%=      5-min Rain = 0
KMC1 270155Z 09006KT 18/07 A3022 RMK A01 T01830069  RH  047%=      5-min Rain = 0
KMC1 270156Z 09005KT 18/07 A3022 RMK A01 T01830069  RH  047%=      5-min Rain = 0
KMC1 270157Z 09005KT 18/07 A3022 RMK A01 T01830068  RH  047%=      5-min Rain = 0
KMC1 270158Z 08006KT 18/07 A3022 RMK A01 T01820068  RH  047%=      5-min Rain = 0
KMC1 270159Z 09007KT 18/07 A3022 RMK A01 T01820068  RH  047%=      5-min Rain = 0
KMC1 270200Z 09006KT 18/07 A3022 RMK A01 T01820068  RH  047%=      5-min Rain = 0
KMC1 270201Z 08006KT 18/07 A3022 RMK A01 T01820068  RH  047%=      5-min Rain = 0
KMC1 270202Z 08007KT 18/07 A3022 RMK A01 T01820068  RH  047%=      5-min Rain = 0
KMC1 270203Z 09006KT 18/07 A3022 RMK A01 T01820068  RH  047%=      5-min Rain = 0
KMC1 270204Z 09006KT 18/07 A3022 RMK A01 T01810067  RH  047%=      5-min Rain = 0
KMC1 270205Z 09006KT 18/07 A3022 RMK A01 T01810067  RH  047%=      5-min Rain = 0
KMC1 270206Z 09006KT 18/07 A3022 RMK A01 T01810067  RH  047%=      5-min Rain = 0
KMC1 270207Z 09006KT 18/07 A3022 RMK A01 T01810067  RH  047%=      5-min Rain = 0
KMC1 270208Z 09005KT 18/07 A3022 RMK A01 T01810067  RH  047%=      5-min Rain = 0
KMC1 270209Z 09006KT 18/07 A3022 RMK A01 T01800067  RH  047%=      5-min Rain = 0
KMC1 270210Z 09007KT 18/07 A3022 RMK A01 T01800066  RH  047%=      5-min Rain = 0
KMC1 270211Z 09007KT 18/07 A3022 RMK A01 T01800066  RH  047%=      5-min Rain = 0
KMC1 270212Z 09006KT 18/07 A3022 RMK A01 T01800066  RH  047%=      5-min Rain = 0
KMC1 270213Z 09007KT 18/07 A3022 RMK A01 T01800066  RH  047%=      5-min Rain = 0
KMC1 270214Z 09007KT 18/07 A3022 RMK A01 T01800066  RH  047%=      5-min Rain = 0
KMC1 270215Z 10007KT 18/07 A3023 RMK A01 T01800066  RH  047%=      5-min Rain = 0
KMC1 270216Z 09005KT 18/07 A3023 RMK A01 T01800066  RH  047%=      5-min Rain = 0
KMC1 270217Z 10007KT 18/07 A3023 RMK A01 T01810066  RH  047%=      5-min Rain = 0
KMC1 270218Z 09007KT 18/07 A3023 RMK A01 T01800065  RH  047%=      5-min Rain = 0
KMC1 270219Z 09006G11KT 18/07 A3023 RMK A01 T01800065  RH  047%=      5-min Rain = 0
KMC1 270220Z 10007KT 18/07 A3023 RMK A01 T01800065  RH  047%=      5-min Rain = 0
KMC1 270221Z 10006KT 18/07 A3023 RMK A01 T01800065  RH  047%=      5-min Rain = 0
KMC1 270222Z 10007KT 18/07 A3023 RMK A01 T01800065  RH  047%=      5-min Rain = 0
KMC1 270223Z 10007KT 18/07 A3023 RMK A01 T01810065  RH  047%=      5-min Rain = 0
KMC1 270224Z 10006KT 18/06 A3023 RMK A01 T01800064  RH  047%=      5-min Rain = 0
KMC1 270225Z 10007KT 18/07 A3023 RMK A01 T01810065  RH  047%=      5-min Rain = 0
KMC1 270226Z 10007KT 18/06 A3023 RMK A01 T01800064  RH  047%=      5-min Rain = 0
KMC1 270227Z 10006KT 18/06 A3023 RMK A01 T01800064  RH  046%=      5-min Rain = 0
KMC1 270228Z 10007KT 18/06 A3023 RMK A01 T01800064  RH  046%=      5-min Rain = 0
KMC1 270229Z 09006KT 18/06 A3023 RMK A01 T01800063  RH  046%=      5-min Rain = 0
KMC1 270230Z 10008KT 18/06 A3023 RMK A01 T01800063  RH  046%=      5-min Rain = 0
KMC1 270231Z 10007KT 18/06 A3023 RMK A01 T01800063  RH  046%=      5-min Rain = 0
KMC1 270232Z 10007KT 18/06 A3023 RMK A01 T01800063  RH  046%=      5-min Rain = 0
KMC1 270233Z 10007KT 18/06 A3023 RMK A01 T01800063  RH  046%=      5-min Rain = 0
KMC1 270234Z 10006KT 18/06 A3023 RMK A01 T01800063  RH  046%=      5-min Rain = 0
KMC1 270235Z 10006KT 18/06 A3023 RMK A01 T01800063  RH  046%=      5-min Rain = 0
KMC1 270236Z 10007KT 18/06 A3023 RMK A01 T01800063  RH  046%=      5-min Rain = 0
KMC1 270237Z 09007KT 18/06 A3023 RMK A01 T01800062  RH  046%=      5-min Rain = 0
KMC1 270238Z 10006KT 18/06 A3024 RMK A01 T01800063  RH  046%=      5-min Rain = 0
KMC1 270239Z 10006KT 18/06 A3024 RMK A01 T01800063  RH  046%=      5-min Rain = 0
KMC1 270240Z 09006KT 18/06 A3024 RMK A01 T01800063  RH  046%=      5-min Rain = 0
KMC1 270241Z 10006KT 18/06 A3024 RMK A01 T01790063  RH  046%=      5-min Rain = 0
KMC1 270242Z 10007KT 18/06 A3024 RMK A01 T01790062  RH  046%=      5-min Rain = 0
KMC1 270243Z 10008KT 18/06 A3024 RMK A01 T01790062  RH  046%=      5-min Rain = 0
KMC1 270244Z 09005KT 18/06 A3024 RMK A01 T01810062  RH  046%=      5-min Rain = 0
KMC1 270245Z 10006KT 18/06 A3024 RMK A01 T01810062  RH  046%=      5-min Rain = 0
KMC1 270246Z 10007KT 18/06 A3024 RMK A01 T01800062  RH  046%=      5-min Rain = 0
KMC1 270247Z 10007KT 18/06 A3024 RMK A01 T01800062  RH  046%=      5-min Rain = 0
KMC1 270248Z 10007G12KT 18/06 A3024 RMK A01 T01800062  RH  046%=      5-min Rain = 0
KMC1 270249Z 10008KT 18/06 A3024 RMK A01 T01800062  RH  046%=      5-min Rain = 0
KMC1 270250Z 10008KT 18/06 A3024 RMK A01 T01800062  RH  046%=      5-min Rain = 0
KMC1 270251Z 10007KT 18/06 A3024 RMK A01 T01810062  RH  046%=      5-min Rain = 0
KMC1 270252Z 10006KT 18/06 A3024 RMK A01 T01800062  RH  046%=      5-min Rain = 0
KMC1 270253Z 11006KT 18/06 A3025 RMK A01 T01800062  RH  046%=      5-min Rain = 0
KMC1 270254Z 11007KT 18/06 A3025 RMK A01 T01800062  RH  046%=      5-min Rain = 0
KMC1 270255Z 10006KT 18/06 A3025 RMK A01 T01790062  RH  046%=      5-min Rain = 0
KMC1 270256Z 10007KT 18/06 A3025 RMK A01 T01790062  RH  046%=      5-min Rain = 0
KMC1 270257Z 10006KT 18/06 A3025 RMK A01 T01790062  RH  046%=      5-min Rain = 0
KMC1 270258Z 10007KT 18/06 A3025 RMK A01 T01790062  RH  046%=      5-min Rain = 0
KMC1 270259Z 10007KT 18/06 A3025 RMK A01 T01790062  RH  046%=      5-min Rain = 0
KMC1 270300Z 10006KT 18/06 A3025 RMK A01 T01790063  RH  047%=      5-min Rain = 0
KMC1 270301Z 11006KT 18/06 A3025 RMK A01 T01780063  RH  047%=      5-min Rain = 0
KMC1 270302Z 10007KT 18/06 A3025 RMK A01 T01770062  RH  047%=      5-min Rain = 0
KMC1 270303Z 10007KT 18/06 A3025 RMK A01 T01770062  RH  047%=      5-min Rain = 0
KMC1 270304Z 10007KT 18/06 A3025 RMK A01 T01770062  RH  047%=      5-min Rain = 0
KMC1 270305Z 10007KT 18/06 A3025 RMK A01 T01770062  RH  047%=      5-min Rain = 0
KMC1 270306Z 10007KT 18/06 A3025 RMK A01 T01770063  RH  047%=      5-min Rain = 0
KMC1 270307Z 10007KT 18/06 A3025 RMK A01 T01770063  RH  047%=      5-min Rain = 0
KMC1 270308Z 10006KT 18/06 A3025 RMK A01 T01760062  RH  047%=      5-min Rain = 0
KMC1 270309Z 10006KT 18/06 A3025 RMK A01 T01760063  RH  047%=      5-min Rain = 0
KMC1 270310Z 10006KT 18/06 A3025 RMK A01 T01750063  RH  048%=      5-min Rain = 0
KMC1 270311Z 10006KT 18/06 A3025 RMK A01 T01750063  RH  048%=      5-min Rain = 0
KMC1 270312Z 10007KT 18/06 A3025 RMK A01 T01750063  RH  048%=      5-min Rain = 0
KMC1 270313Z 10008KT 17/06 A3025 RMK A01 T01740063  RH  048%=      5-min Rain = 0
KMC1 270314Z 10007KT 17/06 A3025 RMK A01 T01740062  RH  048%=      5-min Rain = 0
KMC1 270315Z 10007KT 18/06 A3025 RMK A01 T01750063  RH  048%=      5-min Rain = 0
KMC1 270316Z 10006KT 17/06 A3025 RMK A01 T01740063  RH  048%=      5-min Rain = 0
KMC1 270317Z 10007KT 17/06 A3025 RMK A01 T01740063  RH  048%=      5-min Rain = 0
KMC1 270318Z 11007KT 17/06 A3025 RMK A01 T01740063  RH  048%=      5-min Rain = 0
KMC1 270319Z 10008KT 17/06 A3025 RMK A01 T01740063  RH  048%=      5-min Rain = 0
KMC1 270320Z 11007KT 17/06 A3025 RMK A01 T01740063  RH  048%=      5-min Rain = 0
KMC1 270321Z 10007KT 17/06 A3025 RMK A01 T01740063  RH  048%=      5-min Rain = 0
KMC1 270322Z 10008KT 17/06 A3025 RMK A01 T01740063  RH  048%=      5-min Rain = 0
KMC1 270323Z 10008KT 17/06 A3025 RMK A01 T01740063  RH  048%=      5-min Rain = 0
KMC1 270324Z 10008KT 17/06 A3025 RMK A01 T01740063  RH  048%=      5-min Rain = 0
KMC1 270325Z 10007KT 17/06 A3025 RMK A01 T01740063  RH  048%=      5-min Rain = 0
KMC1 270326Z 10007KT 17/06 A3025 RMK A01 T01740063  RH  048%=      5-min Rain = 0
KMC1 270327Z 10007KT 17/06 A3025 RMK A01 T01740063  RH  048%=      5-min Rain = 0
KMC1 270328Z 10006KT 17/06 A3025 RMK A01 T01730063  RH  048%=      5-min Rain = 0
KMC1 270329Z 10006KT 17/06 A3025 RMK A01 T01730063  RH  049%=      5-min Rain = 0
KMC1 270330Z 10006KT 17/06 A3025 RMK A01 T01720063  RH  049%=      5-min Rain = 0
KMC1 270331Z 10006KT 17/06 A3025 RMK A01 T01710063  RH  049%=      5-min Rain = 0
KMC1 270332Z 10006KT 17/06 A3026 RMK A01 T01710063  RH  049%=      5-min Rain = 0
KMC1 270333Z 10006KT 17/06 A3026 RMK A01 T01710063  RH  049%=      5-min Rain = 0
KMC1 270334Z 10006KT 17/06 A3026 RMK A01 T01700063  RH  049%=      5-min Rain = 0
KMC1 270335Z 10006KT 17/06 A3026 RMK A01 T01700063  RH  049%=      5-min Rain = 0
KMC1 270336Z 11006KT 17/06 A3026 RMK A01 T01690063  RH  049%=      5-min Rain = 0
KMC1 270337Z 11006KT 17/06 A3026 RMK A01 T01690063  RH  050%=      5-min Rain = 0
KMC1 270338Z 10006KT 17/06 A3026 RMK A01 T01690063  RH  050%=      5-min Rain = 0
KMC1 270339Z 11006KT 17/06 A3026 RMK A01 T01690063  RH  050%=      5-min Rain = 0
KMC1 270340Z 11005KT 17/06 A3026 RMK A01 T01680063  RH  050%=      5-min Rain = 0
KMC1 270341Z 11006KT 17/06 A3026 RMK A01 T01680063  RH  050%=      5-min Rain = 0
KMC1 270342Z 10005KT 17/06 A3026 RMK A01 T01670063  RH  050%=      5-min Rain = 0
KMC1 270343Z 10006KT 17/06 A3026 RMK A01 T01670063  RH  050%=      5-min Rain = 0
KMC1 270344Z 10007KT 17/06 A3026 RMK A01 T01660063  RH  050%=      5-min Rain = 0
KMC1 270345Z 10007KT 17/06 A3026 RMK A01 T01660063  RH  051%=      5-min Rain = 0
KMC1 270346Z 10006KT 17/06 A3025 RMK A01 T01660063  RH  051%=      5-min Rain = 0
KMC1 270347Z 10006KT 17/06 A3025 RMK A01 T01650063  RH  051%=      5-min Rain = 0
KMC1 270348Z 09006KT 16/06 A3025 RMK A01 T01640063  RH  051%=      5-min Rain = 0
KMC1 270349Z 09006KT 16/06 A3025 RMK A01 T01640063  RH  051%=      5-min Rain = 0
KMC1 270350Z 10006KT 16/06 A3025 RMK A01 T01630063  RH  052%=      5-min Rain = 0
KMC1 270351Z 10007KT 16/06 A3025 RMK A01 T01620063  RH  052%=      5-min Rain = 0
KMC1 270352Z 10006KT 16/06 A3025 RMK A01 T01630063  RH  052%=      5-min Rain = 0
KMC1 270353Z 10007KT 16/06 A3025 RMK A01 T01630063  RH  052%=      5-min Rain = 0
KMC1 270354Z 10007KT 16/06 A3025 RMK A01 T01630063  RH  052%=      5-min Rain = 0
KMC1 270355Z 10006KT 16/06 A3025 RMK A01 T01630063  RH  052%=      5-min Rain = 0
KMC1 270356Z 11007KT 16/06 A3025 RMK A01 T01620063  RH  052%=      5-min Rain = 0
KMC1 270357Z 10007KT 16/06 A3025 RMK A01 T01620063  RH  052%=      5-min Rain = 0
KMC1 270358Z 11007KT 16/06 A3025 RMK A01 T01620063  RH  052%=      5-min Rain = 0
KMC1 270359Z 11007KT 16/06 A3025 RMK A01 T01630063  RH  052%=      5-min Rain = 0
KMC1 270400Z 11007KT 16/06 A3025 RMK A01 T01620063  RH  052%=      5-min Rain = 0
KMC1 270401Z 11007KT 16/06 A3025 RMK A01 T01630063  RH  052%=      5-min Rain = 0
KMC1 270402Z 10008KT 16/06 A3025 RMK A01 T01630063  RH  051%=      5-min Rain = 0
KMC1 270403Z 11007KT 16/06 A3025 RMK A01 T01640063  RH  051%=      5-min Rain = 0
KMC1 270404Z 11007KT 16/06 A3025 RMK A01 T01640063  RH  051%=      5-min Rain = 0
KMC1 270405Z 10006KT 16/06 A3025 RMK A01 T01640063  RH  051%=      5-min Rain = 0
KMC1 270406Z 11008KT 16/06 A3025 RMK A01 T01640064  RH  052%=      5-min Rain = 0
KMC1 270407Z 11006KT 16/06 A3025 RMK A01 T01630063  RH  052%=      5-min Rain = 0
KMC1 270408Z 11007KT 16/06 A3025 RMK A01 T01630064  RH  052%=      5-min Rain = 0
KMC1 270409Z 11006KT 16/06 A3025 RMK A01 T01630064  RH  052%=      5-min Rain = 0
KMC1 270410Z 10007KT 16/06 A3025 RMK A01 T01620063  RH  052%=      5-min Rain = 0
KMC1 270411Z 11006KT 16/06 A3025 RMK A01 T01620063  RH  052%=      5-min Rain = 0
KMC1 270412Z 11007KT 16/06 A3025 RMK A01 T01620063  RH  052%=      5-min Rain = 0
KMC1 270413Z 11007KT 16/06 A3025 RMK A01 T01620064  RH  052%=      5-min Rain = 0
KMC1 270414Z 11007KT 16/06 A3025 RMK A01 T01620064  RH  052%=      5-min Rain = 0
KMC1 270415Z 11007KT 16/06 A3025 RMK A01 T01620064  RH  052%=      5-min Rain = 0
KMC1 270416Z 12007KT 16/06 A3025 RMK A01 T01620064  RH  052%=      5-min Rain = 0
KMC1 270417Z 11008KT 16/06 A3025 RMK A01 T01620064  RH  052%=      5-min Rain = 0
KMC1 270418Z 11007KT 16/06 A3025 RMK A01 T01620063  RH  052%=      5-min Rain = 0
KMC1 270419Z 11008KT 16/06 A3025 RMK A01 T01620063  RH  052%=      5-min Rain = 0
KMC1 270420Z 11008KT 16/06 A3025 RMK A01 T01620063  RH  052%=      5-min Rain = 0
KMC1 270421Z 11007KT 16/06 A3025 RMK A01 T01620063  RH  052%=      5-min Rain = 0
KMC1 270422Z 11008KT 16/06 A3025 RMK A01 T01620063  RH  052%=      5-min Rain = 0
KMC1 270423Z 11009KT 16/06 A3025 RMK A01 T01620064  RH  052%=      5-min Rain = 0
KMC1 270424Z 11007KT 16/06 A3025 RMK A01 T01620063  RH  052%=      5-min Rain = 0
KMC1 270425Z 11008KT 16/06 A3025 RMK A01 T01630064  RH  052%=      5-min Rain = 0
KMC1 270426Z 11007KT 16/06 A3025 RMK A01 T01620064  RH  052%=      5-min Rain = 0
KMC1 270427Z 11008KT 16/06 A3025 RMK A01 T01620064  RH  052%=      5-min Rain = 0
KMC1 270428Z 11007KT 16/06 A3025 RMK A01 T01620064  RH  052%=      5-min Rain = 0
KMC1 270429Z 11008KT 16/06 A3025 RMK A01 T01610064  RH  052%=      5-min Rain = 0
KMC1 270430Z 11008KT 16/06 A3025 RMK A01 T01610064  RH  052%=      5-min Rain = 0
KMC1 270431Z 11007KT 16/06 A3025 RMK A01 T01610064  RH  053%=      5-min Rain = 0
KMC1 270432Z 12007KT 16/06 A3025 RMK A01 T01610064  RH  053%=      5-min Rain = 0
KMC1 270433Z 11008KT 16/06 A3025 RMK A01 T01600064  RH  053%=      5-min Rain = 0
KMC1 270434Z 11008KT 16/06 A3025 RMK A01 T01600064  RH  053%=      5-min Rain = 0
KMC1 270435Z 11007KT 16/06 A3025 RMK A01 T01610064  RH  053%=      5-min Rain = 0
KMC1 270436Z 11009KT 16/06 A3025 RMK A01 T01610064  RH  052%=      5-min Rain = 0
KMC1 270437Z 11008KT 16/06 A3025 RMK A01 T01620064  RH  052%=      5-min Rain = 0
KMC1 270438Z 11009KT 16/06 A3025 RMK A01 T01620064  RH  052%=      5-min Rain = 0
KMC1 270439Z 11008KT 16/06 A3025 RMK A01 T01620063  RH  052%=      5-min Rain = 0
KMC1 270440Z 11007KT 16/06 A3025 RMK A01 T01620064  RH  052%=      5-min Rain = 0
KMC1 270441Z 11008KT 16/06 A3025 RMK A01 T01610064  RH  052%=      5-min Rain = 0
KMC1 270442Z 11007KT 16/06 A3025 RMK A01 T01610064  RH  052%=      5-min Rain = 0
KMC1 270443Z 11009KT 16/06 A3025 RMK A01 T01620064  RH  052%=      5-min Rain = 0
KMC1 270444Z 11008KT 16/06 A3025 RMK A01 T01620064  RH  052%=      5-min Rain = 0
KMC1 270445Z 11008KT 16/06 A3025 RMK A01 T01620064  RH  052%=      5-min Rain = 0
KMC1 270446Z 12009KT 16/06 A3025 RMK A01 T01630064  RH  052%=      5-min Rain = 0
KMC1 270447Z 11009KT 16/06 A3025 RMK A01 T01630064  RH  052%=      5-min Rain = 0
KMC1 270448Z 11009KT 16/06 A3025 RMK A01 T01630064  RH  052%=      5-min Rain = 0
KMC1 270449Z 11009KT 16/06 A3025 RMK A01 T01640064  RH  052%=      5-min Rain = 0
KMC1 270450Z 11010KT 16/06 A3025 RMK A01 T01630064  RH  052%=      5-min Rain = 0
KMC1 270451Z 11009KT 16/06 A3025 RMK A01 T01630064  RH  052%=      5-min Rain = 0
KMC1 270452Z 11007KT 16/06 A3025 RMK A01 T01630064  RH  052%=      5-min Rain = 0
KMC1 270453Z 11007KT 16/06 A3025 RMK A01 T01630064  RH  052%=      5-min Rain = 0
KMC1 270454Z 11008KT 16/06 A3025 RMK A01 T01620064  RH  052%=      5-min Rain = 0
KMC1 270455Z 11008KT 16/06 A3025 RMK A01 T01610064  RH  052%=      5-min Rain = 0
KMC1 270456Z 11009KT 16/06 A3025 RMK A01 T01610064  RH  053%=      5-min Rain = 0
KMC1 270457Z 11009KT 16/06 A3025 RMK A01 T01610064  RH  053%=      5-min Rain = 0
KMC1 270458Z 12007KT 16/06 A3025 RMK A01 T01610064  RH  053%=      5-min Rain = 0
KMC1 270459Z 11007KT 16/06 A3025 RMK A01 T01610064  RH  053%=      5-min Rain = 0

Page generated in 0.1306 seconds.